Wetterdaten: Dienstag, 11.02.2020
Datum Zeit Temp. Aussen Temp. o. S. Temp +5cm Feuchte Auss Luftdruck Regen Sonnenschein Regendauer Solar Windben Empfang
11.02.2020 00:00 3,9 C 2,8 C 2,2 C 94 % 996,4 hPa 0,0 l/m 0 min 0 min 0 W/m 6,4 km/h (2 Bft) 93,62 %
11.02.2020 00:02 3,9 C 2,8 C 2,2 C 94 % 996,5 hPa 0,0 l/m 0 min 0 min 0 W/m 6,4 km/h (2 Bft) 6,67 %
11.02.2020 00:04 3,8 C 2,8 C 2,2 C 94 % 996,6 hPa 0,0 l/m 0 min 0 min 0 W/m 9,7 km/h (2 Bft) 84,62 %
11.02.2020 00:08 3,8 C 2,8 C 2,2 C 94 % 996,9 hPa 0,0 l/m 0 min 0 min 0 W/m 16,1 km/h (3 Bft) 95,74 %
11.02.2020 00:10 3,8 C 2,2 C 2,2 C 94 % 997,1 hPa 0,0 l/m 0 min 0 min 0 W/m 19,3 km/h (3 Bft) 95,74 %
11.02.2020 00:12 3,7 C 2,2 C 2,2 C 94 % 997,1 hPa 0,0 l/m 0 min 0 min 0 W/m 12,9 km/h (3 Bft) 95,74 %
11.02.2020 00:14 3,7 C 2,2 C 2,2 C 94 % 997,1 hPa 0,0 l/m 0 min 0 min 0 W/m 9,7 km/h (2 Bft) 95,65 %
11.02.2020 00:16 3,7 C 2,2 C 2,2 C 94 % 997,2 hPa 0,0 l/m 0 min 0 min 0 W/m 16,1 km/h (3 Bft) 95,74 %
11.02.2020 00:18 3,7 C 2,2 C 2,2 C 94 % 997,6 hPa 0,0 l/m 0 min 0 min 0 W/m 16,1 km/h (3 Bft) 95,74 %
11.02.2020 00:20 3,6 C 2,2 C 2,2 C 94 % 997,6 hPa 0,0 l/m 0 min 0 min 0 W/m 19,3 km/h (3 Bft) 95,74 %
11.02.2020 00:22 3,6 C 2,2 C 2,2 C 94 % 997,7 hPa 0,0 l/m 0 min 0 min 0 W/m 19,3 km/h (3 Bft) 95,74 %
11.02.2020 00:24 3,6 C 2,2 C 1,7 C 94 % 997,8 hPa 0,0 l/m 0 min 0 min 0 W/m 29,0 km/h (5 Bft) 93,62 %
11.02.2020 00:26 3,5 C 2,2 C 2,2 C 94 % 997,7 hPa 0,0 l/m 0 min 0 min 0 W/m 29,0 km/h (5 Bft) 95,65 %
11.02.2020 00:28 3,5 C 2,2 C 1,7 C 94 % 997,9 hPa 0,0 l/m 0 min 0 min 0 W/m 35,4 km/h (5 Bft) 93,62 %
11.02.2020 00:30 3,5 C 2,2 C 1,7 C 94 % 998,0 hPa 0,0 l/m 0 min 0 min 0 W/m 29,0 km/h (5 Bft) 95,74 %
11.02.2020 00:32 3,4 C 2,2 C 1,7 C 94 % 998,1 hPa 0,0 l/m 0 min 0 min 0 W/m 25,7 km/h (4 Bft) 95,74 %
11.02.2020 00:34 3,4 C 2,2 C 1,7 C 94 % 998,1 hPa 0,0 l/m 0 min 0 min 0 W/m 29,0 km/h (5 Bft) 95,74 %
11.02.2020 00:36 3,4 C 2,2 C 1,7 C 94 % 998,2 hPa 0,0 l/m 0 min 0 min 0 W/m 38,6 km/h (5 Bft) 95,65 %
11.02.2020 00:38 3,4 C 2,2 C 2,2 C 95 % 998,2 hPa 0,0 l/m 0 min 0 min 0 W/m 29,0 km/h (5 Bft) 93,62 %
11.02.2020 00:40 3,4 C 2,8 C 2,2 C 95 % 998,3 hPa 0,0 l/m 0 min 0 min 0 W/m 16,1 km/h (3 Bft) 95,74 %
11.02.2020 00:42 3,4 C 2,2 C 2,2 C 95 % 998,2 hPa 0,0 l/m 0 min 0 min 0 W/m 16,1 km/h (3 Bft) 95,74 %
11.02.2020 00:44 3,4 C 2,8 C 2,2 C 95 % 998,2 hPa 0,0 l/m 0 min 0 min 0 W/m 16,1 km/h (3 Bft) 95,74 %
11.02.2020 00:46 3,4 C 2,8 C 2,2 C 95 % 998,3 hPa 0,0 l/m 0 min 0 min 0 W/m 32,2 km/h (5 Bft) 97,87 %
11.02.2020 00:48 3,5 C 2,8 C 2,2 C 95 % 998,4 hPa 0,0 l/m 0 min 0 min 0 W/m 25,7 km/h (4 Bft) 97,83 %
11.02.2020 00:50 3,5 C 2,8 C 2,2 C 95 % 998,5 hPa 0,0 l/m 0 min 0 min 0 W/m 22,5 km/h (4 Bft) 100,00 %
11.02.2020 00:52 3,6 C 2,8 C 2,2 C 95 % 998,7 hPa 0,0 l/m 0 min 0 min 0 W/m 16,1 km/h (3 Bft) 100,00 %
11.02.2020 00:54 3,6 C 2,8 C 2,2 C 95 % 998,7 hPa 0,0 l/m 0 min 0 min 0 W/m 22,5 km/h (4 Bft) 100,00 %
11.02.2020 00:56 3,6 C 2,8 C 2,2 C 95 % 998,7 hPa 0,0 l/m 0 min 0 min 0 W/m 32,2 km/h (5 Bft) 95,74 %
11.02.2020 00:58 3,6 C 2,8 C 2,2 C 95 % 998,7 hPa 0,0 l/m 0 min 0 min 0 W/m 25,7 km/h (4 Bft) 97,87 %
11.02.2020 01:00 3,6 C 2,8 C 2,2 C 95 % 998,8 hPa 0,0 l/m 0 min 0 min 0 W/m 32,2 km/h (5 Bft) 100,00 %
11.02.2020 01:02 3,7 C 2,8 C 2,2 C 95 % 998,8 hPa 0,0 l/m 0 min 0 min 0 W/m 22,5 km/h (4 Bft) 91,49 %
11.02.2020 01:04 3,7 C 2,8 C 2,2 C 95 % 998,8 hPa 0,0 l/m 0 min 0 min 0 W/m 22,5 km/h (4 Bft) 60,87 %
11.02.2020 01:06 3,7 C 2,8 C 2,2 C 95 % 998,7 hPa 0,0 l/m 0 min 0 min 0 W/m 35,4 km/h (5 Bft) 97,87 %
11.02.2020 01:08 3,7 C 2,8 C 2,2 C 95 % 998,8 hPa 0,0 l/m 0 min 0 min 0 W/m 22,5 km/h (4 Bft) 97,87 %
11.02.2020 01:10 3,7 C 2,8 C 2,2 C 94 % 998,8 hPa 0,0 l/m 0 min 0 min 0 W/m 35,4 km/h (5 Bft) 97,87 %
11.02.2020 01:12 3,7 C 2,8 C 2,2 C 94 % 998,7 hPa 0,0 l/m 0 min 0 min 0 W/m 51,5 km/h (7 Bft) 97,83 %
11.02.2020 01:14 3,7 C 2,8 C 2,2 C 94 % 998,8 hPa 0,0 l/m 0 min 0 min 0 W/m 45,1 km/h (6 Bft) 95,74 %
11.02.2020 01:16 3,7 C 2,8 C 2,2 C 94 % 998,8 hPa 0,0 l/m 0 min 0 min 0 W/m 32,2 km/h (5 Bft) 97,87 %
11.02.2020 01:18 3,8 C 2,8 C 2,2 C 94 % 998,8 hPa 0,0 l/m 0 min 0 min 0 W/m 35,4 km/h (5 Bft) 97,87 %
11.02.2020 01:20 3,7 C 2,8 C 2,2 C 94 % 998,9 hPa 0,0 l/m 0 min 0 min 0 W/m 25,7 km/h (4 Bft) 97,87 %
11.02.2020 01:22 3,7 C 2,8 C 2,2 C 94 % 999,1 hPa 0,0 l/m 0 min 0 min 0 W/m 38,6 km/h (5 Bft) 97,87 %
11.02.2020 01:24 3,7 C 2,8 C 2,2 C 93 % 999,2 hPa 0,0 l/m 0 min 0 min 0 W/m 22,5 km/h (4 Bft) 97,83 %
11.02.2020 01:26 3,7 C 2,8 C 2,2 C 93 % 999,2 hPa 0,0 l/m 0 min 0 min 0 W/m 19,3 km/h (3 Bft) 97,87 %
11.02.2020 01:28 3,7 C 2,8 C 2,2 C 93 % 999,3 hPa 0,0 l/m 0 min 0 min 0 W/m 29,0 km/h (5 Bft) 97,87 %
11.02.2020 01:30 3,7 C 2,8 C 2,2 C 93 % 999,2 hPa 0,0 l/m 0 min 0 min 0 W/m 25,7 km/h (4 Bft) 97,87 %
11.02.2020 01:32 3,7 C 2,8 C 2,2 C 93 % 999,3 hPa 0,0 l/m 0 min 0 min 0 W/m 32,2 km/h (5 Bft) 93,62 %
11.02.2020 01:34 3,7 C 2,8 C 2,2 C 93 % 999,3 hPa 0,0 l/m 0 min 0 min 0 W/m 22,5 km/h (4 Bft) 97,83 %
11.02.2020 01:36 3,7 C 2,8 C 2,2 C 93 % 999,3 hPa 0,0 l/m 0 min 0 min 0 W/m 35,4 km/h (5 Bft) 95,74 %
11.02.2020 01:38 3,7 C 2,8 C 2,2 C 93 % 999,3 hPa 0,0 l/m 0 min 0 min 0 W/m 22,5 km/h (4 Bft) 97,87 %
11.02.2020 01:40 3,7 C 2,8 C 2,2 C 92 % 999,3 hPa 0,0 l/m 0 min 0 min 0 W/m 38,6 km/h (5 Bft) 97,87 %
11.02.2020 01:42 3,7 C 2,8 C 2,2 C 92 % 999,4 hPa 0,0 l/m 0 min 0 min 0 W/m 41,8 km/h (6 Bft) 97,87 %
11.02.2020 01:44 3,7 C 2,8 C 2,2 C 92 % 999,4 hPa 0,0 l/m 0 min 0 min 0 W/m 22,5 km/h (4 Bft) 97,87 %
11.02.2020 01:46 3,7 C 2,2 C 1,7 C 92 % 999,3 hPa 0,0 l/m 0 min 0 min 0 W/m 19,3 km/h (3 Bft) 97,83 %
11.02.2020 01:48 3,7 C 2,8 C 2,2 C 92 % 999,5 hPa 0,0 l/m 0 min 0 min 0 W/m 22,5 km/h (4 Bft) 93,62 %
11.02.2020 01:50 3,7 C 2,8 C 2,2 C 92 % 999,5 hPa 0,0 l/m 0 min 0 min 0 W/m 32,2 km/h (5 Bft) 97,87 %
11.02.2020 01:52 3,7 C 2,8 C 2,2 C 91 % 999,7 hPa 0,0 l/m 0 min 0 min 0 W/m 25,7 km/h (4 Bft) 100,00 %
11.02.2020 01:54 3,7 C 2,8 C 2,2 C 91 % 999,6 hPa 0,0 l/m 0 min 0 min 0 W/m 22,5 km/h (4 Bft) 100,00 %
11.02.2020 01:56 3,7 C 2,8 C 2,2 C 91 % 999,5 hPa 0,0 l/m 0 min 0 min 0 W/m 25,7 km/h (4 Bft) 100,00 %
11.02.2020 01:58 3,7 C 2,8 C 2,2 C 91 % 999,6 hPa 0,0 l/m 0 min 0 min 0 W/m 22,5 km/h (4 Bft) 100,00 %
11.02.2020 02:00 3,7 C 2,8 C 2,2 C 91 % 999,5 hPa 0,0 l/m 0 min 0 min 0 W/m 25,7 km/h (4 Bft) 100,00 %
11.02.2020 02:02 3,7 C 2,8 C 2,2 C 91 % 999,6 hPa 0,0 l/m 0 min 0 min 0 W/m 35,4 km/h (5 Bft) 45,95 %
11.02.2020 02:04 3,7 C 2,8 C 2,2 C 91 % 999,6 hPa 0,0 l/m 0 min 0 min 0 W/m 35,4 km/h (5 Bft) 100,00 %
11.02.2020 02:06 3,8 C 2,8 C 2,2 C 90 % 999,7 hPa 0,0 l/m 0 min 0 min 0 W/m 29,0 km/h (5 Bft) 97,87 %
11.02.2020 02:08 3,8 C 2,8 C 2,2 C 90 % 999,7 hPa 0,0 l/m 0 min 0 min 0 W/m 25,7 km/h (4 Bft) 100,00 %
11.02.2020 02:10 3,8 C 2,8 C 2,2 C 90 % 999,7 hPa 0,0 l/m 0 min 0 min 0 W/m 32,2 km/h (5 Bft) 100,00 %
11.02.2020 02:12 3,8 C 2,8 C 2,2 C 90 % 999,6 hPa 0,0 l/m 0 min 0 min 0 W/m 29,0 km/h (5 Bft) 100,00 %
11.02.2020 02:14 3,8 C 2,8 C 2,2 C 90 % 999,8 hPa 0,0 l/m 0 min 0 min 0 W/m 45,1 km/h (6 Bft) 100,00 %
11.02.2020 02:16 3,8 C 2,8 C 2,2 C 89 % 999,9 hPa 0,0 l/m 0 min 0 min 0 W/m 32,2 km/h (5 Bft) 100,00 %
11.02.2020 02:18 3,9 C 2,8 C 2,2 C 89 % 999,9 hPa 0,0 l/m 0 min 0 min 0 W/m 19,3 km/h (3 Bft) 100,00 %
11.02.2020 02:20 3,9 C 2,8 C 2,2 C 88 % 999,9 hPa 0,0 l/m 0 min 0 min 0 W/m 25,7 km/h (4 Bft) 100,00 %
11.02.2020 02:22 3,9 C 2,8 C 2,2 C 88 % 1000,0 hPa 0,0 l/m 0 min 0 min 0 W/m 19,3 km/h (3 Bft) 97,83 %
11.02.2020 02:24 3,9 C 3,3 C 2,2 C 88 % 999,9 hPa 0,0 l/m 0 min 0 min 0 W/m 22,5 km/h (4 Bft) 100,00 %
11.02.2020 02:26 3,9 C 3,3 C 2,2 C 88 % 999,8 hPa 0,0 l/m 0 min 0 min 0 W/m 22,5 km/h (4 Bft) 100,00 %
11.02.2020 02:28 3,9 C 3,3 C 2,2 C 88 % 1000,0 hPa 0,0 l/m 0 min 0 min 0 W/m 19,3 km/h (3 Bft) 100,00 %
11.02.2020 02:30 3,9 C 3,3 C 1,7 C 88 % 1000,0 hPa 0,0 l/m 0 min 0 min 0 W/m 16,1 km/h (3 Bft) 100,00 %
11.02.2020 02:32 3,9 C 3,3 C 2,2 C 87 % 999,9 hPa 0,0 l/m 0 min 0 min 0 W/m 35,4 km/h (5 Bft) 97,87 %
11.02.2020 02:34 3,9 C 3,3 C 2,2 C 87 % 1000,1 hPa 0,0 l/m 0 min 0 min 0 W/m 16,1 km/h (3 Bft) 95,65 %
11.02.2020 02:36 3,9 C 3,3 C 2,2 C 87 % 1000,1 hPa 0,0 l/m 0 min 0 min 0 W/m 22,5 km/h (4 Bft) 97,87 %
11.02.2020 02:38 3,9 C 3,3 C 2,2 C 87 % 1000,1 hPa 0,0 l/m 0 min 0 min 0 W/m 22,5 km/h (4 Bft) 97,87 %
11.02.2020 02:40 3,9 C 3,3 C 2,2 C 87 % 1000,2 hPa 0,0 l/m 0 min 0 min 0 W/m 22,5 km/h (4 Bft) 95,74 %
11.02.2020 02:42 4,0 C 3,3 C 2,2 C 87 % 1000,1 hPa 0,0 l/m 0 min 0 min 0 W/m 35,4 km/h (5 Bft) 97,87 %
11.02.2020 02:44 4,0 C 3,3 C 2,2 C 86 % 1000,2 hPa 0,0 l/m 0 min 0 min 0 W/m 22,5 km/h (4 Bft) 97,87 %
11.02.2020 02:46 4,1 C 3,9 C 2,2 C 86 % 1000,2 hPa 0,0 l/m 0 min 0 min 0 W/m 22,5 km/h (4 Bft) 95,00 %
11.02.2020 02:48 4,1 C 3,9 C 2,2 C 86 % 1000,3 hPa 0,0 l/m 0 min 0 min 0 W/m 19,3 km/h (3 Bft) 98,11 %
11.02.2020 02:50 4,1 C 3,9 C 2,2 C 86 % 1000,2 hPa 0,0 l/m 0 min 0 min 0 W/m 32,2 km/h (5 Bft) 97,87 %
11.02.2020 02:52 4,1 C 3,9 C 2,2 C 86 % 1000,3 hPa 0,0 l/m 0 min 0 min 0 W/m 25,7 km/h (4 Bft) 97,87 %
11.02.2020 02:54 4,2 C 3,9 C 2,2 C 86 % 1000,2 hPa 0,0 l/m 0 min 0 min 0 W/m 25,7 km/h (4 Bft) 95,74 %
11.02.2020 02:56 4,2 C 3,9 C 2,2 C 85 % 1000,3 hPa 0,0 l/m 0 min 0 min 0 W/m 19,3 km/h (3 Bft) 97,83 %
11.02.2020 02:58 4,2 C 3,9 C 2,2 C 85 % 1000,2 hPa 0,0 l/m 0 min 0 min 0 W/m 22,5 km/h (4 Bft) 97,87 %
11.02.2020 03:00 4,2 C 3,9 C 2,2 C 85 % 1000,3 hPa 0,0 l/m 0 min 0 min 0 W/m 22,5 km/h (4 Bft) 97,87 %
11.02.2020 03:02 4,2 C 3,9 C 2,2 C 84 % 1000,3 hPa 0,0 l/m 0 min 0 min 0 W/m 35,4 km/h (5 Bft) 97,87 %
11.02.2020 03:04 4,2 C 3,9 C 2,2 C 84 % 1000,4 hPa 0,0 l/m 0 min 0 min 0 W/m 29,0 km/h (5 Bft) 97,87 %
11.02.2020 03:06 4,3 C 3,9 C 2,2 C 84 % 1000,4 hPa 0,0 l/m 0 min 0 min 0 W/m 45,1 km/h (6 Bft) 97,87 %
11.02.2020 03:08 4,3 C 3,9 C 2,2 C 84 % 1000,3 hPa 0,0 l/m 0 min 0 min 0 W/m 48,3 km/h (6 Bft) 97,83 %
11.02.2020 03:10 4,3 C 3,9 C 2,2 C 83 % 1000,3 hPa 0,0 l/m 0 min 0 min 0 W/m 25,7 km/h (4 Bft) 97,87 %
11.02.2020 03:12 4,3 C 3,9 C 2,2 C 83 % 1000,3 hPa 0,0 l/m 0 min 0 min 0 W/m 41,8 km/h (6 Bft) 97,87 %
11.02.2020 03:14 4,4 C 3,9 C 2,8 C 83 % 1000,3 hPa 0,0 l/m 0 min 0 min 0 W/m 48,3 km/h (6 Bft) 100,00 %
11.02.2020 03:16 4,4 C 3,9 C 2,8 C 82 % 1000,3 hPa 0,0 l/m 0 min 0 min 0 W/m 19,3 km/h (3 Bft) 100,00 %
11.02.2020 03:18 4,4 C 3,9 C 2,8 C 82 % 1000,4 hPa 0,0 l/m 0 min 0 min 0 W/m 48,3 km/h (6 Bft) 100,00 %
11.02.2020 03:20 4,5 C 3,9 C 3,3 C 82 % 1000,3 hPa 0,0 l/m 0 min 0 min 0 W/m 32,2 km/h (5 Bft) 100,00 %
11.02.2020 03:22 4,5 C 3,9 C 3,3 C 82 % 1000,4 hPa 0,0 l/m 0 min 0 min 0 W/m 35,4 km/h (5 Bft) 100,00 %
11.02.2020 03:24 4,6 C 3,9 C 3,3 C 81 % 1000,3 hPa 0,0 l/m 0 min 0 min 0 W/m 25,7 km/h (4 Bft) 100,00 %
11.02.2020 03:26 4,6 C 3,9 C 3,3 C 81 % 1000,4 hPa 0,0 l/m 0 min 0 min 0 W/m 38,6 km/h (5 Bft) 100,00 %
11.02.2020 03:28 4,6 C 3,9 C 3,3 C 81 % 1000,3 hPa 0,0 l/m 0 min 0 min 0 W/m 29,0 km/h (5 Bft) 100,00 %
11.02.2020 03:30 4,6 C 3,9 C 3,3 C 81 % 1000,3 hPa 0,0 l/m 0 min 0 min 0 W/m 25,7 km/h (4 Bft) 100,00 %
11.02.2020 03:32 4,6 C 3,9 C 3,3 C 81 % 1000,5 hPa 0,0 l/m 0 min 0 min 0 W/m 41,8 km/h (6 Bft) 97,83 %
11.02.2020 03:34 4,6 C 3,9 C 3,3 C 81 % 1000,4 hPa 0,0 l/m 0 min 0 min 0 W/m 35,4 km/h (5 Bft) 100,00 %
11.02.2020 03:36 4,6 C 3,9 C 3,3 C 80 % 1000,5 hPa 0,0 l/m 0 min 0 min 0 W/m 38,6 km/h (5 Bft) 100,00 %
11.02.2020 03:38 4,6 C 3,9 C 3,3 C 80 % 1000,7 hPa 0,0 l/m 0 min 0 min 0 W/m 32,2 km/h (5 Bft) 97,87 %
11.02.2020 03:40 4,6 C 3,9 C 3,3 C 80 % 1000,6 hPa 0,0 l/m 0 min 0 min 0 W/m 32,2 km/h (5 Bft) 97,87 %
11.02.2020 03:42 4,6 C 3,9 C 3,3 C 80 % 1000,7 hPa 0,0 l/m 0 min 0 min 0 W/m 22,5 km/h (4 Bft) 97,83 %
11.02.2020 03:44 4,6 C 3,9 C 3,3 C 80 % 1000,6 hPa 0,0 l/m 0 min 0 min 0 W/m 19,3 km/h (3 Bft) 97,87 %
11.02.2020 03:46 4,6 C 3,9 C 3,3 C 80 % 1000,7 hPa 0,0 l/m 0 min 0 min 0 W/m 25,7 km/h (4 Bft) 97,87 %
11.02.2020 03:48 4,6 C 3,9 C 3,3 C 80 % 1000,7 hPa 0,0 l/m 0 min 0 min 0 W/m 32,2 km/h (5 Bft) 97,87 %
11.02.2020 03:50 4,6 C 3,9 C 3,3 C 80 % 1000,8 hPa 0,0 l/m 0 min 0 min 0 W/m 32,2 km/h (5 Bft) 97,87 %
11.02.2020 03:52 4,6 C 3,9 C 3,3 C 80 % 1000,7 hPa 0,0 l/m 0 min 0 min 0 W/m 41,8 km/h (6 Bft) 97,87 %
11.02.2020 03:54 4,6 C 3,9 C 3,3 C 80 % 1000,7 hPa 0,0 l/m 0 min 0 min 0 W/m 41,8 km/h (6 Bft) 93,48 %
11.02.2020 03:56 4,6 C 3,9 C 3,3 C 79 % 1000,8 hPa 0,0 l/m 0 min 0 min 0 W/m 32,2 km/h (5 Bft) 93,62 %
11.02.2020 03:58 4,6 C 3,9 C 3,3 C 79 % 1000,8 hPa 0,0 l/m 0 min 0 min 0 W/m 35,4 km/h (5 Bft) 95,74 %
11.02.2020 04:00 4,6 C 3,9 C 3,3 C 79 % 1000,9 hPa 0,0 l/m 0 min 0 min 0 W/m 35,4 km/h (5 Bft) 95,74 %
11.02.2020 04:02 4,6 C 3,9 C 3,3 C 79 % 1001,0 hPa 0,0 l/m 0 min 0 min 0 W/m 25,7 km/h (4 Bft) 100,00 %
11.02.2020 04:04 4,6 C 3,9 C 3,3 C 79 % 1000,9 hPa 0,0 l/m 0 min 0 min 0 W/m 29,0 km/h (5 Bft) 95,74 %
11.02.2020 04:06 4,6 C 3,9 C 3,3 C 79 % 1000,9 hPa 0,0 l/m 0 min 0 min 0 W/m 41,8 km/h (6 Bft) 91,30 %
11.02.2020 04:08 4,7 C 3,9 C 3,3 C 78 % 1000,9 hPa 0,0 l/m 0 min 0 min 0 W/m 25,7 km/h (4 Bft) 93,62 %
11.02.2020 04:10 4,7 C 3,9 C 3,3 C 78 % 1001,0 hPa 0,0 l/m 0 min 0 min 0 W/m 25,7 km/h (4 Bft) 95,74 %
11.02.2020 04:12 4,7 C 3,9 C 3,3 C 78 % 1001,1 hPa 0,0 l/m 0 min 0 min 0 W/m 25,7 km/h (4 Bft) 95,74 %
11.02.2020 04:14 4,7 C 3,9 C 3,3 C 78 % 1001,1 hPa 0,0 l/m 0 min 0 min 0 W/m 29,0 km/h (5 Bft) 95,74 %
11.02.2020 04:16 4,7 C 3,9 C 3,3 C 78 % 1001,0 hPa 0,0 l/m 0 min 0 min 0 W/m 25,7 km/h (4 Bft) 95,74 %
11.02.2020 04:18 4,6 C 3,9 C 3,3 C 78 % 1001,2 hPa 0,0 l/m 0 min 0 min 0 W/m 25,7 km/h (4 Bft) 95,65 %
11.02.2020 04:20 4,6 C 3,9 C 3,3 C 78 % 1001,2 hPa 0,0 l/m 0 min 0 min 0 W/m 32,2 km/h (5 Bft) 95,74 %
11.02.2020 04:22 4,6 C 3,9 C 3,3 C 78 % 1001,2 hPa 0,0 l/m 0 min 0 min 0 W/m 38,6 km/h (5 Bft) 95,74 %
11.02.2020 04:24 4,6 C 3,9 C 3,3 C 78 % 1001,2 hPa 0,0 l/m 0 min 0 min 0 W/m 22,5 km/h (4 Bft) 93,62 %
11.02.2020 04:26 4,6 C 3,9 C 3,3 C 78 % 1001,2 hPa 0,0 l/m 0 min 0 min 0 W/m 25,7 km/h (4 Bft) 93,62 %
11.02.2020 04:28 4,6 C 3,9 C 3,3 C 78 % 1001,4 hPa 0,0 l/m 0 min 0 min 0 W/m 32,2 km/h (5 Bft) 95,74 %
11.02.2020 04:30 4,7 C 3,9 C 3,3 C 78 % 1001,4 hPa 0,0 l/m 0 min 0 min 0 W/m 32,2 km/h (5 Bft) 93,48 %
11.02.2020 04:32 4,7 C 3,9 C 3,3 C 78 % 1001,2 hPa 0,0 l/m 0 min 0 min 0 W/m 35,4 km/h (5 Bft) 95,74 %
11.02.2020 04:34 4,7 C 3,9 C 3,3 C 77 % 1001,3 hPa 0,0 l/m 0 min 0 min 0 W/m 35,4 km/h (5 Bft) 95,74 %
11.02.2020 04:36 4,7 C 4,4 C 3,3 C 77 % 1001,3 hPa 0,0 l/m 0 min 0 min 0 W/m 29,0 km/h (5 Bft) 93,62 %
11.02.2020 04:38 4,7 C 4,4 C 3,3 C 77 % 1001,4 hPa 0,0 l/m 0 min 0 min 0 W/m 35,4 km/h (5 Bft) 97,87 %
11.02.2020 04:40 4,8 C 4,4 C 3,3 C 77 % 1001,4 hPa 0,0 l/m 0 min 0 min 0 W/m 35,4 km/h (5 Bft) 97,87 %
11.02.2020 04:42 4,8 C 4,4 C 3,3 C 77 % 1001,4 hPa 0,0 l/m 0 min 0 min 0 W/m 22,5 km/h (4 Bft) 97,83 %
11.02.2020 04:44 4,8 C 4,4 C 3,3 C 77 % 1001,3 hPa 0,0 l/m 0 min 0 min 0 W/m 41,8 km/h (6 Bft) 100,00 %
11.02.2020 04:46 4,8 C 4,4 C 3,3 C 77 % 1001,5 hPa 0,0 l/m 0 min 0 min 0 W/m 35,4 km/h (5 Bft) 100,00 %
11.02.2020 04:48 4,8 C 4,4 C 3,9 C 77 % 1001,5 hPa 0,0 l/m 0 min 0 min 0 W/m 38,6 km/h (5 Bft) 97,87 %
11.02.2020 04:50 4,9 C 4,4 C 3,9 C 77 % 1001,6 hPa 0,0 l/m 0 min 0 min 0 W/m 41,8 km/h (6 Bft) 97,87 %
11.02.2020 04:52 4,9 C 4,4 C 3,9 C 76 % 1001,7 hPa 0,0 l/m 0 min 0 min 0 W/m 35,4 km/h (5 Bft) 100,00 %
11.02.2020 04:54 4,9 C 4,4 C 3,9 C 76 % 1001,7 hPa 0,0 l/m 0 min 0 min 0 W/m 35,4 km/h (5 Bft) 100,00 %
11.02.2020 04:56 4,9 C 4,4 C 3,3 C 76 % 1001,7 hPa 0,0 l/m 0 min 0 min 0 W/m 22,5 km/h (4 Bft) 100,00 %
11.02.2020 04:58 4,9 C 4,4 C 3,9 C 76 % 1001,7 hPa 0,0 l/m 0 min 0 min 0 W/m 29,0 km/h (5 Bft) 100,00 %
11.02.2020 05:00 4,9 C 4,4 C 3,9 C 76 % 1001,8 hPa 0,0 l/m 0 min 0 min 0 W/m 35,4 km/h (5 Bft) 97,87 %
11.02.2020 05:02 5,0 C 4,4 C 3,9 C 76 % 1001,8 hPa 0,0 l/m 0 min 0 min 0 W/m 22,5 km/h (4 Bft) 97,87 %
11.02.2020 05:04 5,0 C 4,4 C 3,9 C 76 % 1001,8 hPa 0,0 l/m 0 min 0 min 0 W/m 32,2 km/h (5 Bft) 95,65 %
11.02.2020 05:06 5,0 C 4,4 C 3,9 C 76 % 1001,9 hPa 0,0 l/m 0 min 0 min 0 W/m 29,0 km/h (5 Bft) 95,74 %
11.02.2020 05:08 5,0 C 4,4 C 3,9 C 76 % 1001,9 hPa 0,0 l/m 0 min 0 min 0 W/m 22,5 km/h (4 Bft) 52,17 %
11.02.2020 05:10 5,0 C 4,4 C 3,9 C 76 % 1002,0 hPa 0,0 l/m 0 min 0 min 0 W/m 35,4 km/h (5 Bft) 97,87 %
11.02.2020 05:12 5,1 C 4,4 C 3,9 C 76 % 1002,0 hPa 0,0 l/m 0 min 0 min 0 W/m 38,6 km/h (5 Bft) 97,87 %
11.02.2020 05:14 5,1 C 4,4 C 3,9 C 75 % 1002,0 hPa 0,0 l/m 0 min 0 min 0 W/m 25,7 km/h (4 Bft) 97,87 %
11.02.2020 05:16 5,1 C 4,4 C 3,9 C 75 % 1002,0 hPa 0,0 l/m 0 min 0 min 0 W/m 38,6 km/h (5 Bft) 95,65 %
11.02.2020 05:18 5,1 C 4,4 C 3,9 C 75 % 1002,0 hPa 0,0 l/m 0 min 0 min 0 W/m 32,2 km/h (5 Bft) 97,87 %
11.02.2020 05:20 5,1 C 4,4 C 3,9 C 75 % 1002,0 hPa 0,0 l/m 0 min 0 min 0 W/m 25,7 km/h (4 Bft) 97,87 %
11.02.2020 05:22 5,1 C 4,4 C 3,9 C 75 % 1002,1 hPa 0,0 l/m 0 min 0 min 0 W/m 25,7 km/h (4 Bft) 97,87 %
11.02.2020 05:24 5,1 C 4,4 C 3,9 C 75 % 1002,1 hPa 0,0 l/m 0 min 0 min 0 W/m 25,7 km/h (4 Bft) 97,87 %
11.02.2020 05:26 5,1 C 4,4 C 3,9 C 75 % 1002,1 hPa 0,0 l/m 0 min 0 min 0 W/m 35,4 km/h (5 Bft) 97,87 %
11.02.2020 05:28 5,1 C 4,4 C 3,9 C 75 % 1002,0 hPa 0,0 l/m 0 min 0 min 0 W/m 25,7 km/h (4 Bft) 97,83 %
11.02.2020 05:30 5,1 C 4,4 C 3,9 C 74 % 1002,0 hPa 0,0 l/m 0 min 0 min 0 W/m 29,0 km/h (5 Bft) 97,87 %
11.02.2020 05:32 5,1 C 4,4 C 3,3 C 74 % 1002,1 hPa 0,0 l/m 0 min 0 min 0 W/m 22,5 km/h (4 Bft) 97,87 %
11.02.2020 05:34 5,0 C 4,4 C 3,3 C 74 % 1002,0 hPa 0,0 l/m 0 min 0 min 0 W/m 38,6 km/h (5 Bft) 97,87 %
11.02.2020 05:36 5,0 C 4,4 C 3,9 C 74 % 1002,0 hPa 0,0 l/m 0 min 0 min 0 W/m 35,4 km/h (5 Bft) 97,87 %
11.02.2020 05:38 5,0 C 4,4 C 3,3 C 74 % 1002,0 hPa 0,0 l/m 0 min 0 min 0 W/m 38,6 km/h (5 Bft) 97,87 %
11.02.2020 05:40 5,0 C 4,4 C 3,3 C 74 % 1002,1 hPa 0,0 l/m 0 min 0 min 0 W/m 22,5 km/h (4 Bft) 95,65 %
11.02.2020 05:42 5,0 C 3,9 C 3,3 C 74 % 1002,1 hPa 0,0 l/m 0 min 0 min 0 W/m 22,5 km/h (4 Bft) 100,00 %
11.02.2020 05:44 4,9 C 3,9 C 3,3 C 74 % 1002,1 hPa 0,0 l/m 0 min 0 min 0 W/m 48,3 km/h (6 Bft) 100,00 %
11.02.2020 05:46 4,9 C 4,4 C 3,3 C 74 % 1002,2 hPa 0,0 l/m 0 min 0 min 0 W/m 29,0 km/h (5 Bft) 100,00 %
11.02.2020 05:48 4,9 C 4,4 C 3,3 C 73 % 1002,1 hPa 0,0 l/m 0 min 0 min 0 W/m 45,1 km/h (6 Bft) 100,00 %
11.02.2020 05:50 4,9 C 4,4 C 3,9 C 73 % 1002,2 hPa 0,0 l/m 0 min 0 min 0 W/m 25,7 km/h (4 Bft) 100,00 %
11.02.2020 05:52 4,9 C 4,4 C 3,3 C 73 % 1002,1 hPa 0,0 l/m 0 min 0 min 0 W/m 35,4 km/h (5 Bft) 97,83 %
11.02.2020 05:54 4,9 C 4,4 C 3,3 C 73 % 1002,1 hPa 0,0 l/m 0 min 0 min 0 W/m 32,2 km/h (5 Bft) 100,00 %
11.02.2020 05:56 4,9 C 4,4 C 3,9 C 73 % 1002,2 hPa 0,0 l/m 0 min 0 min 0 W/m 29,0 km/h (5 Bft) 97,87 %
11.02.2020 05:58 4,9 C 4,4 C 3,3 C 73 % 1002,2 hPa 0,0 l/m 0 min 0 min 0 W/m 22,5 km/h (4 Bft) 100,00 %
11.02.2020 06:00 4,9 C 4,4 C 3,3 C 73 % 1002,4 hPa 0,0 l/m 0 min 0 min 0 W/m 25,7 km/h (4 Bft) 100,00 %
11.02.2020 06:02 4,9 C 4,4 C 3,3 C 73 % 1002,4 hPa 0,0 l/m 0 min 0 min 0 W/m 29,0 km/h (5 Bft) 100,00 %
11.02.2020 06:04 5,0 C 4,4 C 3,9 C 72 % 1002,2 hPa 0,0 l/m 0 min 0 min 0 W/m 35,4 km/h (5 Bft) 100,00 %
11.02.2020 06:06 5,0 C 4,4 C 3,9 C 72 % 1002,3 hPa 0,0 l/m 0 min 0 min 0 W/m 29,0 km/h (5 Bft) 100,00 %
11.02.2020 06:08 5,0 C 4,4 C 3,3 C 73 % 1002,4 hPa 0,0 l/m 0 min 0 min 0 W/m 16,1 km/h (3 Bft) 100,00 %
11.02.2020 06:10 5,0 C 4,4 C 3,9 C 73 % 1002,3 hPa 0,0 l/m 0 min 0 min 0 W/m 25,7 km/h (4 Bft) 100,00 %
11.02.2020 06:12 5,0 C 4,4 C 3,9 C 72 % 1002,3 hPa 0,0 l/m 0 min 0 min 0 W/m 38,6 km/h (5 Bft) 95,74 %
11.02.2020 06:14 5,0 C 4,4 C 3,9 C 73 % 1002,4 hPa 0,0 l/m 0 min 0 min 0 W/m 25,7 km/h (4 Bft) 100,00 %
11.02.2020 06:16 5,0 C 4,4 C 3,9 C 73 % 1002,3 hPa 0,0 l/m 0 min 0 min 0 W/m 19,3 km/h (3 Bft) 95,74 %
11.02.2020 06:18 5,1 C 4,4 C 3,9 C 72 % 1002,3 hPa 0,0 l/m 0 min 0 min 0 W/m 38,6 km/h (5 Bft) 100,00 %
11.02.2020 06:20 5,1 C 4,4 C 3,9 C 72 % 1002,4 hPa 0,0 l/m 0 min 0 min 0 W/m 35,4 km/h (5 Bft) 100,00 %
11.02.2020 06:22 5,1 C 4,4 C 3,9 C 72 % 1002,3 hPa 0,0 l/m 0 min 0 min 0 W/m 29,0 km/h (5 Bft) 100,00 %
11.02.2020 06:24 5,1 C 4,4 C 3,9 C 72 % 1002,3 hPa 0,0 l/m 0 min 0 min 0 W/m 41,8 km/h (6 Bft) 100,00 %
11.02.2020 06:26 5,1 C 4,4 C 3,9 C 72 % 1002,4 hPa 0,0 l/m 0 min 0 min 0 W/m 22,5 km/h (4 Bft) 100,00 %
11.02.2020 06:28 5,2 C 4,4 C 3,9 C 72 % 1002,5 hPa 0,0 l/m 0 min 0 min 0 W/m 19,3 km/h (3 Bft) 100,00 %
11.02.2020 06:30 5,2 C 4,4 C 3,9 C 72 % 1002,5 hPa 0,0 l/m 0 min 0 min 0 W/m 22,5 km/h (4 Bft) 97,87 %
11.02.2020 06:32 5,2 C 4,4 C 3,9 C 72 % 1002,5 hPa 0,0 l/m 0 min 0 min 0 W/m 25,7 km/h (4 Bft) 100,00 %
11.02.2020 06:34 5,2 C 4,4 C 3,9 C 72 % 1002,5 hPa 0,0 l/m 0 min 0 min 0 W/m 35,4 km/h (5 Bft) 100,00 %
11.02.2020 06:36 5,2 C 4,4 C 3,9 C 72 % 1002,5 hPa 0,0 l/m 0 min 0 min 0 W/m 41,8 km/h (6 Bft) 100,00 %
11.02.2020 06:38 5,3 C 5,0 C 3,9 C 72 % 1002,5 hPa 0,0 l/m 0 min 0 min 0 W/m 41,8 km/h (6 Bft) 97,83 %
11.02.2020 06:40 5,3 C 5,0 C 3,9 C 72 % 1002,5 hPa 0,0 l/m 0 min 0 min 0 W/m 29,0 km/h (5 Bft) 97,87 %
11.02.2020 06:42 5,3 C 5,0 C 3,9 C 72 % 1002,6 hPa 0,0 l/m 0 min 0 min 0 W/m 22,5 km/h (4 Bft) 97,87 %
11.02.2020 06:44 5,3 C 4,4 C 3,9 C 72 % 1002,5 hPa 0,0 l/m 0 min 0 min 0 W/m 22,5 km/h (4 Bft) 93,62 %
11.02.2020 06:46 5,3 C 4,4 C 3,9 C 72 % 1002,5 hPa 0,0 l/m 0 min 0 min 0 W/m 32,2 km/h (5 Bft) 97,87 %
11.02.2020 06:48 5,3 C 4,4 C 3,9 C 72 % 1002,5 hPa 0,0 l/m 0 min 0 min 0 W/m 41,8 km/h (6 Bft) 95,74 %
11.02.2020 06:50 5,3 C 4,4 C 3,9 C 72 % 1002,6 hPa 0,0 l/m 0 min 0 min 0 W/m 32,2 km/h (5 Bft) 97,83 %
11.02.2020 06:52 5,3 C 4,4 C 3,9 C 72 % 1002,5 hPa 0,0 l/m 0 min 0 min 0 W/m 22,5 km/h (4 Bft) 97,87 %
11.02.2020 06:54 5,3 C 4,4 C 3,9 C 72 % 1002,6 hPa 0,0 l/m 0 min 0 min 0 W/m 29,0 km/h (5 Bft) 97,87 %
11.02.2020 06:56 5,3 C 4,4 C 3,9 C 71 % 1002,6 hPa 0,0 l/m 0 min 0 min 0 W/m 32,2 km/h (5 Bft) 97,87 %
11.02.2020 06:58 5,3 C 4,4 C 3,9 C 71 % 1002,6 hPa 0,0 l/m 0 min 0 min 0 W/m 38,6 km/h (5 Bft) 93,62 %
11.02.2020 07:00 5,3 C 4,4 C 3,9 C 71 % 1002,6 hPa 0,0 l/m 0 min 0 min 0 W/m 45,1 km/h (6 Bft) 97,83 %
11.02.2020 07:02 5,3 C 4,4 C 3,9 C 71 % 1002,5 hPa 0,0 l/m 0 min 0 min 0 W/m 38,6 km/h (5 Bft) 95,74 %
11.02.2020 07:04 5,3 C 4,4 C 3,9 C 71 % 1002,6 hPa 0,0 l/m 0 min 0 min 0 W/m 25,7 km/h (4 Bft) 97,87 %
11.02.2020 07:06 5,3 C 4,4 C 3,9 C 72 % 1002,7 hPa 0,0 l/m 0 min 0 min 0 W/m 19,3 km/h (3 Bft) 97,87 %
11.02.2020 07:08 5,3 C 4,4 C 3,9 C 72 % 1002,7 hPa 0,0 l/m 0 min 0 min 0 W/m 19,3 km/h (3 Bft) 97,87 %
11.02.2020 07:10 5,2 C 4,4 C 3,9 C 72 % 1002,5 hPa 0,0 l/m 0 min 0 min 0 W/m 35,4 km/h (5 Bft) 97,87 %
11.02.2020 07:12 5,2 C 4,4 C 3,9 C 72 % 1002,6 hPa 0,0 l/m 0 min 0 min 0 W/m 29,0 km/h (5 Bft) 97,83 %
11.02.2020 07:14 5,2 C 4,4 C 3,9 C 72 % 1002,6 hPa 0,0 l/m 0 min 0 min 0 W/m 32,2 km/h (5 Bft) 95,74 %
11.02.2020 07:16 5,2 C 4,4 C 3,9 C 72 % 1002,6 hPa 0,0 l/m 0 min 0 min 0 W/m 25,7 km/h (4 Bft) 97,87 %
11.02.2020 07:18 5,2 C 4,4 C 3,9 C 72 % 1002,6 hPa 0,0 l/m 0 min 0 min 0 W/m 29,0 km/h (5 Bft) 95,74 %
11.02.2020 07:20 5,2 C 4,4 C 3,9 C 72 % 1002,7 hPa 0,0 l/m 0 min 0 min 0 W/m 25,7 km/h (4 Bft) 95,74 %
11.02.2020 07:22 5,2 C 4,4 C 3,9 C 72 % 1002,7 hPa 0,0 l/m 0 min 0 min 0 W/m 16,1 km/h (3 Bft) 91,49 %
11.02.2020 07:24 5,2 C 4,4 C 3,9 C 72 % 1002,8 hPa 0,0 l/m 0 min 0 min 0 W/m 25,7 km/h (4 Bft) 48,65 %
11.02.2020 07:26 5,2 C 4,4 C 3,9 C 72 % 1002,9 hPa 0,0 l/m 0 min 0 min 0 W/m 29,0 km/h (5 Bft) 93,62 %
11.02.2020 07:28 5,2 C 4,4 C 3,9 C 72 % 1002,8 hPa 0,0 l/m 0 min 0 min 0 W/m 32,2 km/h (5 Bft) 97,87 %
11.02.2020 07:30 5,2 C 4,4 C 3,9 C 72 % 1002,8 hPa 0,0 l/m 0 min 0 min 0 W/m 32,2 km/h (5 Bft) 95,74 %
11.02.2020 07:32 5,2 C 4,4 C 3,9 C 72 % 1002,6 hPa 0,0 l/m 0 min 0 min 0 W/m 35,4 km/h (5 Bft) 95,74 %
11.02.2020 07:34 5,2 C 4,4 C 3,9 C 72 % 1002,8 hPa 0,0 l/m 0 min 0 min 0 W/m 35,4 km/h (5 Bft) 93,62 %
11.02.2020 07:36 5,2 C 4,4 C 3,9 C 72 % 1002,8 hPa 0,0 l/m 0 min 0 min 0 W/m 19,3 km/h (3 Bft) 93,48 %
11.02.2020 07:38 5,2 C 4,4 C 3,9 C 72 % 1002,9 hPa 0,0 l/m 0 min 0 min 0 W/m 22,5 km/h (4 Bft) 95,74 %
11.02.2020 07:40 5,2 C 4,4 C 3,9 C 72 % 1002,8 hPa 0,0 l/m 0 min 0 min 0 W/m 22,5 km/h (4 Bft) 95,74 %
11.02.2020 07:42 5,2 C 4,4 C 3,9 C 72 % 1003,1 hPa 0,0 l/m 0 min 0 min 0 W/m 32,2 km/h (5 Bft) 95,74 %
11.02.2020 07:44 5,2 C 5,0 C 3,9 C 71 % 1003,0 hPa 0,0 l/m 0 min 0 min 0 W/m 35,4 km/h (5 Bft) 95,74 %
11.02.2020 07:46 5,3 C 5,0 C 3,9 C 72 % 1003,1 hPa 0,0 l/m 0 min 0 min 0 W/m 25,7 km/h (4 Bft) 92,68 %
11.02.2020 07:48 5,3 C 4,4 C 3,9 C 72 % 1003,3 hPa 0,0 l/m 0 min 0 min 0 W/m 32,2 km/h (5 Bft) 96,15 %
11.02.2020 07:50 5,3 C 4,4 C 3,9 C 72 % 1003,3 hPa 0,0 l/m 0 min 0 min 0 W/m 25,7 km/h (4 Bft) 95,74 %
11.02.2020 07:52 5,3 C 5,0 C 3,9 C 72 % 1003,3 hPa 0,0 l/m 0 min 0 min 0 W/m 45,1 km/h (6 Bft) 95,74 %
11.02.2020 07:54 5,3 C 5,0 C 3,9 C 71 % 1003,4 hPa 0,0 l/m 0 min 0 min 0 W/m 22,5 km/h (4 Bft) 91,49 %
11.02.2020 07:56 5,3 C 5,0 C 3,9 C 71 % 1003,4 hPa 0,0 l/m 0 min 0 min 0 W/m 35,4 km/h (5 Bft) 95,74 %
11.02.2020 07:58 5,3 C 5,0 C 3,9 C 71 % 1003,4 hPa 0,0 l/m 0 min 0 min 0 W/m 22,5 km/h (4 Bft) 95,65 %
11.02.2020 08:00 5,4 C 5,0 C 3,9 C 71 % 1003,6 hPa 0,0 l/m 0 min 0 min 0 W/m 19,3 km/h (3 Bft) 95,74 %
11.02.2020 08:02 5,4 C 5,0 C 3,9 C 72 % 1003,7 hPa 0,0 l/m 0 min 0 min 2 W/m 32,2 km/h (5 Bft) 93,62 %
11.02.2020 08:04 5,4 C 5,0 C 3,9 C 71 % 1003,6 hPa 0,0 l/m 0 min 0 min 5 W/m 32,2 km/h (5 Bft) 95,74 %
11.02.2020 08:06 5,4 C 5,0 C 3,9 C 72 % 1003,6 hPa 0,0 l/m 0 min 0 min 5 W/m 22,5 km/h (4 Bft) 94,29 %
11.02.2020 08:08 5,4 C 5,0 C 3,9 C 72 % 1003,6 hPa 0,0 l/m 0 min 0 min 7 W/m 19,3 km/h (3 Bft) 94,92 %
11.02.2020 08:10 5,4 C 5,0 C 3,9 C 72 % 1003,5 hPa 0,0 l/m 0 min 0 min 9 W/m 38,6 km/h (5 Bft) 95,65 %
11.02.2020 08:12 5,4 C 5,0 C 3,9 C 72 % 1003,5 hPa 0,0 l/m 0 min 0 min 11 W/m 25,7 km/h (4 Bft) 91,49 %
11.02.2020 08:14 5,4 C 5,0 C 3,9 C 72 % 1003,6 hPa 0,0 l/m 0 min 0 min 11 W/m 22,5 km/h (4 Bft) 97,87 %
11.02.2020 08:16 5,4 C 5,0 C 3,9 C 72 % 1003,5 hPa 0,0 l/m 0 min 0 min 12 W/m 25,7 km/h (4 Bft) 97,87 %
11.02.2020 08:18 5,4 C 4,4 C 3,9 C 72 % 1003,5 hPa 0,0 l/m 0 min 0 min 14 W/m 16,1 km/h (3 Bft) 97,87 %
11.02.2020 08:20 5,4 C 4,4 C 3,9 C 72 % 1003,5 hPa 0,0 l/m 0 min 0 min 18 W/m 29,0 km/h (5 Bft) 97,83 %
11.02.2020 08:22 5,4 C 5,0 C 3,9 C 72 % 1003,6 hPa 0,0 l/m 0 min 0 min 22 W/m 19,3 km/h (3 Bft) 100,00 %
11.02.2020 08:24 5,3 C 5,0 C 3,9 C 72 % 1003,6 hPa 0,0 l/m 0 min 0 min 22 W/m 38,6 km/h (5 Bft) 97,87 %
11.02.2020 08:26 5,4 C 5,0 C 3,9 C 72 % 1003,6 hPa 0,0 l/m 0 min 0 min 25 W/m 35,4 km/h (5 Bft) 100,00 %
11.02.2020 08:28 5,4 C 5,0 C 3,9 C 72 % 1003,6 hPa 0,0 l/m 0 min 0 min 26 W/m 25,7 km/h (4 Bft) 100,00 %
11.02.2020 08:30 5,4 C 5,0 C 3,9 C 72 % 1003,5 hPa 0,0 l/m 0 min 0 min 27 W/m 41,8 km/h (6 Bft) 100,00 %
11.02.2020 08:32 5,4 C 5,0 C 3,9 C 72 % 1003,4 hPa 0,0 l/m 0 min 0 min 34 W/m 32,2 km/h (5 Bft) 100,00 %
11.02.2020 08:34 5,3 C 5,0 C 4,4 C 72 % 1003,6 hPa 0,0 l/m 0 min 0 min 37 W/m 29,0 km/h (5 Bft) 100,00 %
11.02.2020 08:36 5,4 C 5,0 C 4,4 C 72 % 1003,7 hPa 0,0 l/m 0 min 0 min 31 W/m 35,4 km/h (5 Bft) 97,87 %
11.02.2020 08:38 5,4 C 5,0 C 4,4 C 73 % 1003,7 hPa 0,0 l/m 0 min 0 min 31 W/m 16,1 km/h (3 Bft) 97,87 %
11.02.2020 08:40 5,4 C 5,0 C 4,4 C 73 % 1003,7 hPa 0,0 l/m 0 min 0 min 29 W/m 22,5 km/h (4 Bft) 100,00 %
11.02.2020 08:42 5,4 C 5,0 C 4,4 C 73 % 1003,6 hPa 0,0 l/m 0 min 0 min 26 W/m 38,6 km/h (5 Bft) 100,00 %
11.02.2020 08:44 5,4 C 5,0 C 4,4 C 73 % 1003,7 hPa 0,0 l/m 0 min 0 min 28 W/m 41,8 km/h (6 Bft) 100,00 %
11.02.2020 08:46 5,4 C 5,0 C 4,4 C 73 % 1003,7 hPa 0,0 l/m 0 min 0 min 29 W/m 45,1 km/h (6 Bft) 100,00 %
11.02.2020 08:48 5,4 C 5,0 C 4,4 C 73 % 1003,5 hPa 0,0 l/m 0 min 0 min 32 W/m 35,4 km/h (5 Bft) 100,00 %
11.02.2020 08:50 5,5 C 5,0 C 4,4 C 73 % 1003,5 hPa 0,0 l/m 0 min 0 min 30 W/m 22,5 km/h (4 Bft) 100,00 %
11.02.2020 08:52 5,5 C 5,0 C 4,4 C 73 % 1003,5 hPa 0,0 l/m 0 min 0 min 26 W/m 25,7 km/h (4 Bft) 100,00 %
11.02.2020 08:54 5,5 C 5,0 C 4,4 C 73 % 1003,5 hPa 0,0 l/m 0 min 0 min 35 W/m 19,3 km/h (3 Bft) 100,00 %
11.02.2020 08:55 5,5 C 5,0 C 4,4 C 73 % 1003,6 hPa 0,0 l/m 0 min 0 min 34 W/m 25,7 km/h (4 Bft) 100,00 %
11.02.2020 08:58 5,5 C 5,0 C 4,4 C 73 % 1003,7 hPa 0,0 l/m 0 min 0 min 45 W/m 19,3 km/h (3 Bft) 100,00 %
11.02.2020 09:00 5,5 C 5,0 C 4,4 C 73 % 1003,7 hPa 0,0 l/m 0 min 0 min 52 W/m 41,8 km/h (6 Bft) 100,00 %
11.02.2020 09:02 5,5 C 5,0 C 4,4 C 73 % 1003,8 hPa 0,0 l/m 0 min 0 min 54 W/m 22,5 km/h (4 Bft) 97,87 %
11.02.2020 09:06 5,5 C 5,0 C 4,4 C 74 % 1003,7 hPa 0,0 l/m 0 min 0 min 57 W/m 29,0 km/h (5 Bft) 100,00 %
11.02.2020 09:08 5,5 C 5,0 C 4,4 C 74 % 1003,8 hPa 0,0 l/m 0 min 0 min 61 W/m 29,0 km/h (5 Bft) 100,00 %
11.02.2020 09:10 5,5 C 5,0 C 4,4 C 74 % 1003,7 hPa 0,0 l/m 0 min 0 min 63 W/m 38,6 km/h (5 Bft) 100,00 %
11.02.2020 09:12 5,6 C 5,0 C 4,4 C 73 % 1003,8 hPa 0,0 l/m 0 min 0 min 68 W/m 38,6 km/h (5 Bft) 100,00 %
11.02.2020 09:14 5,6 C 5,0 C 4,4 C 74 % 1003,8 hPa 0,0 l/m 0 min 0 min 55 W/m 29,0 km/h (5 Bft) 100,00 %
11.02.2020 09:16 5,5 C 5,0 C 4,4 C 74 % 1003,8 hPa 0,0 l/m 0 min 0 min 56 W/m 25,7 km/h (4 Bft) 100,00 %
11.02.2020 09:18 5,5 C 5,0 C 4,4 C 74 % 1003,9 hPa 0,0 l/m 0 min 0 min 89 W/m 22,5 km/h (4 Bft) 100,00 %
11.02.2020 09:20 5,5 C 5,6 C 4,4 C 74 % 1004,0 hPa 0,0 l/m 2 min 0 min 109 W/m 35,4 km/h (5 Bft) 100,00 %
11.02.2020 09:22 5,6 C 5,6 C 4,4 C 74 % 1003,9 hPa 0,0 l/m 2 min 0 min 111 W/m 29,0 km/h (5 Bft) 97,87 %
11.02.2020 09:24 5,6 C 5,6 C 4,4 C 74 % 1003,9 hPa 0,0 l/m 0 min 0 min 76 W/m 25,7 km/h (4 Bft) 97,87 %
11.02.2020 09:26 5,6 C 5,0 C 4,4 C 74 % 1003,9 hPa 0,0 l/m 0 min 0 min 66 W/m 22,5 km/h (4 Bft) 97,87 %
11.02.2020 09:28 5,6 C 5,6 C 4,4 C 75 % 1004,0 hPa 0,0 l/m 0 min 0 min 83 W/m 32,2 km/h (5 Bft) 97,87 %
11.02.2020 09:30 5,6 C 6,1 C 4,4 C 75 % 1003,9 hPa 0,0 l/m 2 min 0 min 186 W/m 38,6 km/h (5 Bft) 97,83 %
11.02.2020 09:32 5,6 C 6,7 C 5,0 C 75 % 1004,0 hPa 0,0 l/m 2 min 0 min 216 W/m 25,7 km/h (4 Bft) 97,87 %
11.02.2020 09:34 5,6 C 6,7 C 5,0 C 75 % 1004,0 hPa 0,0 l/m 2 min 0 min 182 W/m 25,7 km/h (4 Bft) 97,87 %
11.02.2020 09:36 5,7 C 6,1 C 4,4 C 75 % 1004,0 hPa 0,0 l/m 0 min 0 min 104 W/m 29,0 km/h (5 Bft) 97,87 %
11.02.2020 09:38 5,7 C 5,6 C 4,4 C 74 % 1004,1 hPa 0,0 l/m 0 min 0 min 75 W/m 22,5 km/h (4 Bft) 93,62 %
11.02.2020 09:40 5,7 C 5,6 C 4,4 C 74 % 1004,1 hPa 0,0 l/m 0 min 0 min 68 W/m 38,6 km/h (5 Bft) 97,87 %
11.02.2020 09:42 5,7 C 5,6 C 4,4 C 73 % 1004,1 hPa 0,0 l/m 0 min 0 min 67 W/m 32,2 km/h (5 Bft) 97,83 %
11.02.2020 09:44 5,7 C 5,6 C 4,4 C 73 % 1004,1 hPa 0,0 l/m 0 min 0 min 56 W/m 29,0 km/h (5 Bft) 97,87 %
11.02.2020 09:46 5,7 C 5,0 C 4,4 C 73 % 1004,1 hPa 0,0 l/m 0 min 0 min 48 W/m 25,7 km/h (4 Bft) 97,87 %
11.02.2020 09:48 5,7 C 5,0 C 4,4 C 73 % 1004,2 hPa 0,0 l/m 0 min 0 min 60 W/m 25,7 km/h (4 Bft) 97,87 %
11.02.2020 09:50 5,7 C 5,6 C 4,4 C 73 % 1004,2 hPa 0,0 l/m 0 min 0 min 72 W/m 38,6 km/h (5 Bft) 97,87 %
11.02.2020 09:52 5,7 C 5,6 C 5,0 C 72 % 1004,2 hPa 0,0 l/m 0 min 0 min 79 W/m 35,4 km/h (5 Bft) 97,87 %
11.02.2020 09:54 5,7 C 5,6 C 4,4 C 72 % 1004,2 hPa 0,0 l/m 0 min 0 min 67 W/m 22,5 km/h (4 Bft) 93,48 %
11.02.2020 09:56 5,7 C 5,6 C 4,4 C 72 % 1004,3 hPa 0,0 l/m 0 min 0 min 57 W/m 38,6 km/h (5 Bft) 97,87 %
11.02.2020 09:58 5,7 C 5,6 C 4,4 C 71 % 1004,3 hPa 0,0 l/m 0 min 0 min 56 W/m 25,7 km/h (4 Bft) 91,49 %
11.02.2020 10:00 5,7 C 5,6 C 4,4 C 71 % 1004,3 hPa 0,0 l/m 0 min 0 min 65 W/m 35,4 km/h (5 Bft) 95,74 %
11.02.2020 10:02 5,7 C 6,1 C 4,4 C 71 % 1004,3 hPa 0,0 l/m 0 min 0 min 63 W/m 38,6 km/h (5 Bft) 97,87 %
11.02.2020 10:04 5,7 C 6,7 C 4,4 C 71 % 1004,3 hPa 0,0 l/m 2 min 0 min 203 W/m 22,5 km/h (4 Bft) 95,65 %
11.02.2020 10:06 5,7 C 6,1 C 4,4 C 72 % 1004,3 hPa 0,0 l/m 0 min 0 min 103 W/m 25,7 km/h (4 Bft) 95,74 %
11.02.2020 10:08 5,7 C 6,1 C 5,0 C 71 % 1004,3 hPa 0,0 l/m 2 min 0 min 148 W/m 32,2 km/h (5 Bft) 97,87 %
11.02.2020 10:10 5,8 C 6,1 C 5,0 C 71 % 1004,4 hPa 0,0 l/m 2 min 0 min 178 W/m 19,3 km/h (3 Bft) 95,74 %
11.02.2020 10:12 5,8 C 5,6 C 5,0 C 72 % 1004,5 hPa 0,0 l/m 0 min 0 min 93 W/m 16,1 km/h (3 Bft) 95,74 %
11.02.2020 10:14 5,8 C 5,6 C 4,4 C 72 % 1004,5 hPa 0,0 l/m 0 min 0 min 64 W/m 19,3 km/h (3 Bft) 95,74 %
11.02.2020 10:16 5,8 C 5,6 C 5,0 C 71 % 1004,5 hPa 0,0 l/m 0 min 0 min 101 W/m 35,4 km/h (5 Bft) 95,65 %
11.02.2020 10:18 5,8 C 6,1 C 5,0 C 71 % 1004,5 hPa 0,0 l/m 0 min 0 min 140 W/m 32,2 km/h (5 Bft) 97,87 %
11.02.2020 10:20 5,8 C 5,6 C 5,0 C 71 % 1004,6 hPa 0,0 l/m 0 min 0 min 112 W/m 29,0 km/h (5 Bft) 97,87 %
11.02.2020 10:22 5,8 C 5,6 C 5,0 C 71 % 1004,6 hPa 0,0 l/m 0 min 0 min 99 W/m 19,3 km/h (3 Bft) 97,87 %
11.02.2020 10:24 5,8 C 5,6 C 5,0 C 72 % 1004,5 hPa 0,0 l/m 0 min 0 min 94 W/m 19,3 km/h (3 Bft) 95,74 %
11.02.2020 10:26 5,9 C 5,6 C 5,0 C 71 % 1004,3 hPa 0,0 l/m 0 min 0 min 140 W/m 25,7 km/h (4 Bft) 95,74 %
11.02.2020 10:28 5,9 C 6,1 C 5,0 C 71 % 1004,6 hPa 0,0 l/m 2 min 0 min 232 W/m 35,4 km/h (5 Bft) 97,83 %
11.02.2020 10:30 5,9 C 6,1 C 5,0 C 71 % 1004,6 hPa 0,0 l/m 0 min 0 min 139 W/m 22,5 km/h (4 Bft) 97,87 %
11.02.2020 10:32 5,9 C 6,1 C 5,0 C 72 % 1004,6 hPa 0,0 l/m 0 min 0 min 124 W/m 22,5 km/h (4 Bft) 97,87 %
11.02.2020 10:34 6,0 C 6,7 C 5,0 C 71 % 1004,6 hPa 0,0 l/m 2 min 0 min 165 W/m 32,2 km/h (5 Bft) 97,87 %
11.02.2020 10:36 6,1 C 7,2 C 5,6 C 71 % 1004,6 hPa 0,0 l/m 0 min 0 min 158 W/m 45,1 km/h (6 Bft) 95,74 %
11.02.2020 10:38 6,1 C 6,7 C 5,6 C 71 % 1004,4 hPa 0,0 l/m 0 min 0 min 156 W/m 48,3 km/h (6 Bft) 95,74 %
11.02.2020 10:40 6,1 C 6,7 C 5,0 C 69 % 1004,5 hPa 0,0 l/m 0 min 0 min 153 W/m 41,8 km/h (6 Bft) 97,83 %
11.02.2020 10:42 6,2 C 7,8 C 5,6 C 70 % 1004,5 hPa 0,0 l/m 2 min 0 min 226 W/m 32,2 km/h (5 Bft) 95,74 %
11.02.2020 10:44 6,2 C 7,2 C 5,6 C 70 % 1004,5 hPa 0,0 l/m 2 min 0 min 268 W/m 38,6 km/h (5 Bft) 97,87 %
11.02.2020 10:46 6,3 C 6,7 C 5,6 C 70 % 1004,7 hPa 0,0 l/m 0 min 0 min 134 W/m 41,8 km/h (6 Bft) 97,87 %
11.02.2020 10:48 6,3 C 6,1 C 5,0 C 70 % 1004,6 hPa 0,0 l/m 0 min 0 min 94 W/m 25,7 km/h (4 Bft) 97,87 %
11.02.2020 10:50 6,3 C 6,1 C 5,0 C 70 % 1004,6 hPa 0,0 l/m 0 min 0 min 95 W/m 32,2 km/h (5 Bft) 97,87 %
11.02.2020 10:52 6,3 C 6,7 C 5,6 C 70 % 1004,7 hPa 0,0 l/m 0 min 0 min 118 W/m 29,0 km/h (5 Bft) 93,48 %
11.02.2020 10:54 6,3 C 6,7 C 5,6 C 70 % 1004,6 hPa 0,0 l/m 0 min 0 min 120 W/m 29,0 km/h (5 Bft) 95,74 %
11.02.2020 10:56 6,3 C 6,1 C 5,6 C 70 % 1004,7 hPa 0,0 l/m 0 min 0 min 115 W/m 45,1 km/h (6 Bft) 97,87 %
11.02.2020 10:58 6,3 C 6,1 C 5,6 C 69 % 1004,8 hPa 0,0 l/m 0 min 0 min 104 W/m 35,4 km/h (5 Bft) 93,62 %
11.02.2020 11:00 6,3 C 6,1 C 5,0 C 69 % 1004,7 hPa 0,0 l/m 0 min 0 min 107 W/m 38,6 km/h (5 Bft) 97,87 %
11.02.2020 11:02 6,3 C 6,1 C 5,0 C 70 % 1004,7 hPa 0,0 l/m 0 min 0 min 101 W/m 25,7 km/h (4 Bft) 97,87 %
11.02.2020 11:04 6,3 C 6,7 C 5,0 C 70 % 1004,7 hPa 0,0 l/m 0 min 0 min 130 W/m 32,2 km/h (5 Bft) 97,83 %
11.02.2020 11:06 6,3 C 6,7 C 5,6 C 70 % 1004,6 hPa 0,0 l/m 0 min 0 min 155 W/m 38,6 km/h (5 Bft) 95,74 %
11.02.2020 11:08 6,3 C 7,2 C 5,6 C 70 % 1004,7 hPa 0,0 l/m 2 min 0 min 250 W/m 22,5 km/h (4 Bft) 97,87 %
11.02.2020 11:10 6,3 C 7,2 C 5,6 C 69 % 1004,6 hPa 0,0 l/m 2 min 0 min 239 W/m 25,7 km/h (4 Bft) 97,87 %
11.02.2020 11:12 6,4 C 6,7 C 5,6 C 69 % 1004,7 hPa 0,0 l/m 0 min 0 min 137 W/m 29,0 km/h (5 Bft) 97,87 %
11.02.2020 11:14 6,4 C 6,7 C 5,6 C 68 % 1004,6 hPa 0,0 l/m 0 min 0 min 128 W/m 38,6 km/h (5 Bft) 97,83 %
11.02.2020 11:16 6,4 C 6,1 C 5,6 C 69 % 1004,7 hPa 0,0 l/m 0 min 0 min 122 W/m 25,7 km/h (4 Bft) 97,87 %
11.02.2020 11:18 6,3 C 6,1 C 5,6 C 69 % 1004,8 hPa 0,0 l/m 0 min 0 min 106 W/m 35,4 km/h (5 Bft) 97,87 %
11.02.2020 11:20 6,3 C 6,1 C 5,6 C 69 % 1004,6 hPa 0,0 l/m 0 min 0 min 124 W/m 25,7 km/h (4 Bft) 97,87 %
11.02.2020 11:22 6,3 C 6,1 C 5,0 C 69 % 1004,7 hPa 0,0 l/m 0 min 0 min 101 W/m 38,6 km/h (5 Bft) 97,87 %
11.02.2020 11:24 6,3 C 6,1 C 5,0 C 70 % 1004,8 hPa 0,0 l/m 0 min 0 min 72 W/m 19,3 km/h (3 Bft) 97,87 %
11.02.2020 11:26 6,3 C 5,6 C 5,0 C 70 % 1004,9 hPa 0,0 l/m 0 min 0 min 69 W/m 38,6 km/h (5 Bft) 97,83 %
11.02.2020 11:28 6,2 C 6,1 C 5,0 C 69 % 1004,9 hPa 0,0 l/m 0 min 0 min 78 W/m 19,3 km/h (3 Bft) 97,87 %
11.02.2020 11:30 6,2 C 6,1 C 5,0 C 70 % 1005,0 hPa 0,0 l/m 0 min 0 min 89 W/m 22,5 km/h (4 Bft) 97,87 %
11.02.2020 11:32 6,2 C 6,7 C 5,0 C 69 % 1005,1 hPa 0,0 l/m 0 min 0 min 94 W/m 35,4 km/h (5 Bft) 97,87 %
11.02.2020 11:34 6,2 C 6,7 C 5,6 C 70 % 1005,1 hPa 0,0 l/m 0 min 0 min 114 W/m 35,4 km/h (5 Bft) 97,87 %
11.02.2020 11:36 6,3 C 6,7 C 5,6 C 70 % 1005,1 hPa 0,0 l/m 0 min 0 min 133 W/m 22,5 km/h (4 Bft) 95,74 %
11.02.2020 11:38 6,3 C 6,7 C 5,6 C 70 % 1005,2 hPa 0,0 l/m 0 min 0 min 187 W/m 35,4 km/h (5 Bft) 97,83 %
11.02.2020 11:40 6,3 C 7,2 C 5,6 C 69 % 1004,9 hPa 0,0 l/m 2 min 0 min 202 W/m 35,4 km/h (5 Bft) 97,87 %
11.02.2020 11:42 6,4 C 7,2 C 5,6 C 69 % 1005,0 hPa 0,0 l/m 0 min 0 min 164 W/m 41,8 km/h (6 Bft) 95,74 %
11.02.2020 11:44 6,4 C 7,2 C 5,6 C 68 % 1005,0 hPa 0,0 l/m 0 min 0 min 171 W/m 35,4 km/h (5 Bft) 97,87 %
11.02.2020 11:46 6,5 C 8,9 C 6,1 C 69 % 1005,0 hPa 0,0 l/m 2 min 0 min 216 W/m 16,1 km/h (3 Bft) 100,00 %
11.02.2020 11:48 6,6 C 8,3 C 6,1 C 68 % 1005,0 hPa 0,0 l/m 2 min 0 min 459 W/m 32,2 km/h (5 Bft) 100,00 %
11.02.2020 11:50 6,7 C 7,8 C 6,1 C 69 % 1005,2 hPa 0,0 l/m 2 min 0 min 223 W/m 38,6 km/h (5 Bft) 97,83 %
11.02.2020 11:52 6,8 C 7,8 C 6,1 C 68 % 1005,1 hPa 0,0 l/m 2 min 0 min 218 W/m 35,4 km/h (5 Bft) 100,00 %
11.02.2020 11:54 6,8 C 7,8 C 6,1 C 68 % 1005,2 hPa 0,0 l/m 0 min 0 min 190 W/m 38,6 km/h (5 Bft) 100,00 %
11.02.2020 11:56 6,8 C 8,9 C 6,1 C 67 % 1005,1 hPa 0,0 l/m 2 min 0 min 242 W/m 32,2 km/h (5 Bft) 100,00 %
11.02.2020 11:58 6,9 C 8,3 C 6,7 C 68 % 1005,1 hPa 0,0 l/m 2 min 0 min 309 W/m 16,1 km/h (3 Bft) 97,87 %
11.02.2020 12:00 6,9 C 7,8 C 6,7 C 68 % 1005,1 hPa 0,0 l/m 2 min 0 min 238 W/m 41,8 km/h (6 Bft) 97,83 %
11.02.2020 12:02 7,0 C 7,8 C 6,7 C 67 % 1005,1 hPa 0,0 l/m 2 min 0 min 250 W/m 64,4 km/h (8 Bft) 97,87 %
11.02.2020 12:04 7,1 C 8,3 C 7,2 C 67 % 1005,1 hPa 0,0 l/m 2 min 0 min 301 W/m 29,0 km/h (5 Bft) 97,87 %
11.02.2020 12:06 7,1 C 8,3 C 7,2 C 67 % 1005,1 hPa 0,0 l/m 2 min 0 min 266 W/m 25,7 km/h (4 Bft) 97,87 %
11.02.2020 12:08 7,2 C 10,0 C 7,8 C 67 % 1005,1 hPa 0,0 l/m 2 min 0 min 424 W/m 29,0 km/h (5 Bft) 95,74 %
11.02.2020 12:10 7,3 C 8,9 C 7,8 C 67 % 1005,1 hPa 0,0 l/m 2 min 0 min 420 W/m 32,2 km/h (5 Bft) 97,87 %
11.02.2020 12:12 7,3 C 8,3 C 7,2 C 67 % 1005,1 hPa 0,0 l/m 2 min 0 min 218 W/m 25,7 km/h (4 Bft) 97,87 %
11.02.2020 12:14 7,4 C 8,3 C 7,2 C 67 % 1005,1 hPa 0,0 l/m 0 min 0 min 201 W/m 32,2 km/h (5 Bft) 95,65 %
11.02.2020 12:16 7,4 C 7,8 C 7,2 C 66 % 1005,1 hPa 0,0 l/m 0 min 0 min 186 W/m 41,8 km/h (6 Bft) 95,74 %
11.02.2020 12:18 7,4 C 7,2 C 7,2 C 66 % 1005,1 hPa 0,0 l/m 0 min 0 min 186 W/m 41,8 km/h (6 Bft) 97,87 %
11.02.2020 12:20 7,4 C 7,2 C 7,2 C 66 % 1005,2 hPa 0,0 l/m 0 min 0 min 167 W/m 25,7 km/h (4 Bft) 97,87 %
11.02.2020 12:22 7,3 C 8,3 C 7,2 C 66 % 1005,2 hPa 0,0 l/m 0 min 0 min 194 W/m 29,0 km/h (5 Bft) 97,87 %
11.02.2020 12:24 7,4 C 8,9 C 7,2 C 65 % 1005,2 hPa 0,0 l/m 2 min 0 min 461 W/m 38,6 km/h (5 Bft) 97,83 %
11.02.2020 12:26 7,4 C 8,3 C 7,2 C 65 % 1005,3 hPa 0,0 l/m 2 min 0 min 313 W/m 38,6 km/h (5 Bft) 97,87 %
11.02.2020 12:28 7,4 C 8,3 C 7,2 C 64 % 1005,2 hPa 0,0 l/m 2 min 0 min 247 W/m 35,4 km/h (5 Bft) 97,87 %
11.02.2020 12:30 7,4 C 8,3 C 7,2 C 65 % 1005,2 hPa 0,0 l/m 2 min 0 min 247 W/m 29,0 km/h (5 Bft) 95,74 %
11.02.2020 12:32 7,4 C 8,9 C 7,2 C 65 % 1005,2 hPa 0,0 l/m 2 min 0 min 272 W/m 25,7 km/h (4 Bft) 97,87 %
11.02.2020 12:34 7,5 C 10,6 C 7,8 C 66 % 1005,4 hPa 0,0 l/m 2 min 0 min 342 W/m 25,7 km/h (4 Bft) 97,87 %
11.02.2020 12:36 7,6 C 10,0 C 8,3 C 65 % 1005,4 hPa 0,0 l/m 2 min 0 min 577 W/m 29,0 km/h (5 Bft) 97,83 %
11.02.2020 12:38 7,6 C 9,4 C 7,8 C 65 % 1005,3 hPa 0,0 l/m 2 min 0 min 276 W/m 38,6 km/h (5 Bft) 95,74 %
11.02.2020 12:40 7,7 C 8,9 C 7,8 C 64 % 1005,3 hPa 0,0 l/m 2 min 0 min 222 W/m 22,5 km/h (4 Bft) 100,00 %
11.02.2020 12:42 7,7 C 7,8 C 7,2 C 64 % 1005,3 hPa 0,0 l/m 0 min 0 min 180 W/m 29,0 km/h (5 Bft) 100,00 %
11.02.2020 12:44 7,7 C 7,2 C 7,2 C 64 % 1005,4 hPa 0,0 l/m 0 min 0 min 144 W/m 25,7 km/h (4 Bft) 100,00 %
11.02.2020 12:46 7,6 C 7,2 C 6,7 C 64 % 1005,2 hPa 0,0 l/m 0 min 0 min 104 W/m 25,7 km/h (4 Bft) 97,87 %
11.02.2020 12:48 7,6 C 6,7 C 6,7 C 64 % 1005,3 hPa 0,0 l/m 0 min 0 min 97 W/m 29,0 km/h (5 Bft) 93,48 %
11.02.2020 12:50 7,4 C 6,7 C 6,7 C 64 % 1005,2 hPa 0,0 l/m 0 min 0 min 147 W/m 35,4 km/h (5 Bft) 100,00 %
11.02.2020 12:52 7,3 C 6,7 C 6,7 C 63 % 1005,4 hPa 0,0 l/m 0 min 0 min 135 W/m 41,8 km/h (6 Bft) 100,00 %
11.02.2020 12:54 7,3 C 6,7 C 6,7 C 64 % 1005,4 hPa 0,0 l/m 0 min 0 min 138 W/m 25,7 km/h (4 Bft) 100,00 %
11.02.2020 12:56 7,2 C 7,2 C 6,7 C 65 % 1005,4 hPa 0,0 l/m 0 min 0 min 204 W/m 25,7 km/h (4 Bft) 100,00 %
11.02.2020 12:58 7,2 C 8,3 C 7,2 C 65 % 1005,4 hPa 0,0 l/m 0 min 0 min 195 W/m 29,0 km/h (5 Bft) 97,87 %
11.02.2020 13:00 7,2 C 7,8 C 7,2 C 65 % 1005,4 hPa 0,0 l/m 2 min 0 min 274 W/m 35,4 km/h (5 Bft) 97,83 %
11.02.2020 13:02 7,2 C 8,3 C 7,2 C 65 % 1005,4 hPa 0,0 l/m 2 min 0 min 287 W/m 22,5 km/h (4 Bft) 100,00 %
11.02.2020 13:04 7,2 C 7,8 C 6,7 C 65 % 1005,4 hPa 0,0 l/m 0 min 0 min 142 W/m 32,2 km/h (5 Bft) 100,00 %
11.02.2020 13:06 7,2 C 7,8 C 6,7 C 65 % 1005,4 hPa 0,0 l/m 0 min 0 min 205 W/m 38,6 km/h (5 Bft) 100,00 %
11.02.2020 13:08 7,2 C 8,3 C 7,2 C 65 % 1005,5 hPa 0,0 l/m 2 min 0 min 222 W/m 22,5 km/h (4 Bft) 97,87 %
11.02.2020 13:10 7,3 C 9,4 C 7,8 C 65 % 1005,3 hPa 0,0 l/m 2 min 0 min 340 W/m 51,5 km/h (7 Bft) 100,00 %
11.02.2020 13:12 7,3 C 10,6 C 7,8 C 65 % 1005,2 hPa 0,0 l/m 2 min 0 min 519 W/m 22,5 km/h (4 Bft) 100,00 %
11.02.2020 13:14 7,4 C 9,4 C 7,2 C 65 % 1005,2 hPa 0,0 l/m 2 min 0 min 326 W/m 25,7 km/h (4 Bft) 100,00 %
11.02.2020 13:16 7,4 C 8,9 C 7,2 C 65 % 1005,3 hPa 0,0 l/m 0 min 0 min 148 W/m 25,7 km/h (4 Bft) 100,00 %
11.02.2020 13:18 7,5 C 9,4 C 7,2 C 64 % 1005,3 hPa 0,0 l/m 0 min 0 min 148 W/m 45,1 km/h (6 Bft) 97,87 %
11.02.2020 13:20 7,6 C 8,9 C 7,2 C 64 % 1005,2 hPa 0,0 l/m 0 min 0 min 148 W/m 41,8 km/h (6 Bft) 100,00 %
11.02.2020 13:22 7,6 C 7,8 C 7,2 C 64 % 1005,2 hPa 0,0 l/m 0 min 0 min 138 W/m 19,3 km/h (3 Bft) 97,83 %
11.02.2020 13:24 7,6 C 8,9 C 7,2 C 64 % 1005,4 hPa 0,0 l/m 0 min 0 min 152 W/m 32,2 km/h (5 Bft) 97,87 %
11.02.2020 13:26 7,6 C 9,4 C 7,2 C 63 % 1005,2 hPa 0,0 l/m 0 min 0 min 191 W/m 29,0 km/h (5 Bft) 95,74 %
11.02.2020 13:28 7,6 C 9,4 C 7,2 C 64 % 1005,2 hPa 0,0 l/m 2 min 0 min 447 W/m 38,6 km/h (5 Bft) 93,62 %
11.02.2020 13:30 7,6 C 8,9 C 7,2 C 63 % 1005,3 hPa 0,0 l/m 2 min 0 min 299 W/m 35,4 km/h (5 Bft) 97,87 %
11.02.2020 13:32 7,6 C 8,9 C 7,2 C 62 % 1005,4 hPa 0,0 l/m 0 min 0 min 165 W/m 51,5 km/h (7 Bft) 97,87 %
11.02.2020 13:34 7,6 C 8,3 C 7,2 C 63 % 1005,5 hPa 0,0 l/m 0 min 0 min 165 W/m 29,0 km/h (5 Bft) 97,83 %
11.02.2020 13:36 7,6 C 7,8 C 6,7 C 64 % 1005,3 hPa 0,0 l/m 0 min 0 min 120 W/m 41,8 km/h (6 Bft) 97,87 %
11.02.2020 13:38 7,6 C 7,2 C 6,7 C 64 % 1005,4 hPa 0,0 l/m 0 min 0 min 131 W/m 29,0 km/h (5 Bft) 97,87 %
11.02.2020 13:40 7,6 C 7,2 C 6,7 C 65 % 1005,6 hPa 0,0 l/m 0 min 0 min 152 W/m 29,0 km/h (5 Bft) 95,74 %
11.02.2020 13:42 7,4 C 7,2 C 6,7 C 65 % 1005,5 hPa 0,0 l/m 0 min 2 min 193 W/m 35,4 km/h (5 Bft) 97,87 %
11.02.2020 13:44 7,4 C 8,9 C 6,7 C 66 % 1005,5 hPa 0,0 l/m 2 min 2 min 264 W/m 29,0 km/h (5 Bft) 97,87 %
11.02.2020 13:46 7,3 C 8,9 C 6,7 C 67 % 1005,5 hPa 0,0 l/m 2 min 0 min 547 W/m 32,2 km/h (5 Bft) 95,65 %
11.02.2020 13:48 7,3 C 8,3 C 6,7 C 67 % 1005,4 hPa 0,0 l/m 2 min 0 min 385 W/m 41,8 km/h (6 Bft) 97,87 %
11.02.2020 13:50 7,3 C 8,9 C 6,7 C 67 % 1005,4 hPa 0,0 l/m 0 min 0 min 176 W/m 19,3 km/h (3 Bft) 97,87 %
11.02.2020 13:52 7,3 C 9,4 C 6,7 C 68 % 1005,4 hPa 0,0 l/m 0 min 0 min 176 W/m 32,2 km/h (5 Bft) 95,74 %
11.02.2020 13:54 7,3 C 10,0 C 6,7 C 67 % 1005,3 hPa 0,0 l/m 2 min 0 min 473 W/m 64,4 km/h (8 Bft) 95,74 %
11.02.2020 13:56 7,4 C 10,6 C 7,2 C 66 % 1005,2 hPa 0,0 l/m 2 min 0 min 502 W/m 38,6 km/h (5 Bft) 95,74 %
11.02.2020 13:58 7,6 C 11,1 C 7,2 C 65 % 1005,2 hPa 0,0 l/m 2 min 0 min 506 W/m 29,0 km/h (5 Bft) 93,48 %
11.02.2020 14:00 7,7 C 11,7 C 7,2 C 65 % 1005,3 hPa 0,0 l/m 2 min 0 min 469 W/m 32,2 km/h (5 Bft) 95,74 %
11.02.2020 14:02 7,8 C 10,6 C 7,2 C 63 % 1005,3 hPa 0,0 l/m 2 min 0 min 441 W/m 35,4 km/h (5 Bft) 95,74 %
11.02.2020 14:04 7,9 C 10,6 C 7,2 C 61 % 1005,4 hPa 0,0 l/m 2 min 0 min 444 W/m 41,8 km/h (6 Bft) 95,74 %
11.02.2020 14:06 8,0 C 11,1 C 7,2 C 61 % 1005,2 hPa 0,0 l/m 2 min 0 min 472 W/m 35,4 km/h (5 Bft) 95,74 %
11.02.2020 14:08 8,1 C 11,7 C 7,8 C 62 % 1005,3 hPa 0,0 l/m 2 min 0 min 480 W/m 25,7 km/h (4 Bft) 95,65 %
11.02.2020 14:10 8,2 C 11,7 C 7,8 C 62 % 1005,2 hPa 0,0 l/m 2 min 0 min 464 W/m 29,0 km/h (5 Bft) 95,74 %
11.02.2020 14:12 8,3 C 11,7 C 7,8 C 61 % 1005,4 hPa 0,0 l/m 2 min 0 min 448 W/m 22,5 km/h (4 Bft) 97,87 %
11.02.2020 14:14 8,4 C 11,7 C 7,8 C 61 % 1005,3 hPa 0,0 l/m 2 min 0 min 453 W/m 38,6 km/h (5 Bft) 95,74 %
11.02.2020 14:16 8,4 C 11,1 C 7,8 C 61 % 1005,4 hPa 0,0 l/m 2 min 0 min 428 W/m 38,6 km/h (5 Bft) 91,49 %
11.02.2020 14:18 8,4 C 11,1 C 7,2 C 59 % 1005,3 hPa 0,0 l/m 2 min 0 min 437 W/m 25,7 km/h (4 Bft) 95,74 %
11.02.2020 14:20 8,4 C 11,1 C 7,8 C 60 % 1005,4 hPa 0,0 l/m 2 min 0 min 445 W/m 35,4 km/h (5 Bft) 89,36 %
11.02.2020 14:22 8,5 C 11,1 C 7,8 C 60 % 1005,2 hPa 0,0 l/m 2 min 0 min 472 W/m 41,8 km/h (6 Bft) 93,48 %
11.02.2020 14:24 8,5 C 10,6 C 7,8 C 58 % 1005,1 hPa 0,0 l/m 2 min 0 min 461 W/m 45,1 km/h (6 Bft) 91,49 %
11.02.2020 14:26 8,4 C 10,0 C 7,2 C 58 % 1005,4 hPa 0,0 l/m 2 min 0 min 365 W/m 25,7 km/h (4 Bft) 93,62 %
11.02.2020 14:28 8,4 C 8,3 C 7,2 C 59 % 1005,4 hPa 0,0 l/m 2 min 0 min 311 W/m 25,7 km/h (4 Bft) 51,11 %
11.02.2020 14:30 8,3 C 7,8 C 6,7 C 60 % 1005,3 hPa 0,0 l/m 2 min 0 min 203 W/m 25,7 km/h (4 Bft) 95,74 %
11.02.2020 14:32 8,1 C 7,2 C 6,7 C 60 % 1005,4 hPa 0,0 l/m 0 min 0 min 94 W/m 32,2 km/h (5 Bft) 93,48 %
11.02.2020 14:34 8,0 C 7,2 C 6,7 C 61 % 1005,6 hPa 0,0 l/m 0 min 0 min 106 W/m 25,7 km/h (4 Bft) 97,87 %
11.02.2020 14:36 7,9 C 7,2 C 6,7 C 62 % 1005,6 hPa 0,0 l/m 0 min 0 min 110 W/m 22,5 km/h (4 Bft) 95,74 %
11.02.2020 14:38 7,8 C 7,2 C 6,7 C 62 % 1005,6 hPa 0,0 l/m 0 min 0 min 114 W/m 22,5 km/h (4 Bft) 95,74 %
11.02.2020 14:40 7,8 C 7,2 C 6,7 C 62 % 1005,8 hPa 0,0 l/m 0 min 0 min 98 W/m 19,3 km/h (3 Bft) 97,87 %
11.02.2020 14:42 7,7 C 8,3 C 6,7 C 62 % 1005,8 hPa 0,0 l/m 0 min 0 min 119 W/m 29,0 km/h (5 Bft) 95,74 %
11.02.2020 14:44 7,6 C 9,4 C 6,7 C 63 % 1005,6 hPa 0,0 l/m 2 min 0 min 379 W/m 29,0 km/h (5 Bft) 97,83 %
11.02.2020 14:46 7,6 C 9,4 C 6,7 C 62 % 1005,6 hPa 0,0 l/m 2 min 0 min 347 W/m 38,6 km/h (5 Bft) 100,00 %
11.02.2020 14:48 7,6 C 9,4 C 6,7 C 62 % 1005,8 hPa 0,0 l/m 2 min 0 min 355 W/m 35,4 km/h (5 Bft) 97,87 %
11.02.2020 14:50 7,6 C 10,0 C 6,7 C 62 % 1005,7 hPa 0,0 l/m 2 min 0 min 352 W/m 38,6 km/h (5 Bft) 95,74 %
11.02.2020 14:52 7,6 C 10,0 C 6,7 C 64 % 1005,9 hPa 0,0 l/m 2 min 0 min 346 W/m 22,5 km/h (4 Bft) 97,87 %
11.02.2020 14:54 7,6 C 10,0 C 6,7 C 64 % 1005,9 hPa 0,0 l/m 2 min 0 min 316 W/m 35,4 km/h (5 Bft) 97,87 %
11.02.2020 14:56 7,6 C 10,0 C 6,7 C 64 % 1005,7 hPa 0,0 l/m 2 min 0 min 344 W/m 25,7 km/h (4 Bft) 97,83 %
11.02.2020 14:58 7,6 C 10,6 C 6,7 C 64 % 1005,7 hPa 0,0 l/m 2 min 0 min 341 W/m 16,1 km/h (3 Bft) 97,87 %
11.02.2020 15:00 7,7 C 10,6 C 6,7 C 65 % 1005,7 hPa 0,0 l/m 2 min 0 min 331 W/m 16,1 km/h (3 Bft) 97,87 %
11.02.2020 15:02 7,7 C 10,0 C 6,7 C 65 % 1005,7 hPa 0,0 l/m 2 min 0 min 272 W/m 25,7 km/h (4 Bft) 97,87 %
11.02.2020 15:04 7,7 C 8,3 C 6,1 C 65 % 1005,6 hPa 0,0 l/m 0 min 0 min 132 W/m 25,7 km/h (4 Bft) 100,00 %
11.02.2020 15:06 7,6 C 7,2 C 6,1 C 64 % 1005,6 hPa 0,0 l/m 0 min 0 min 71 W/m 19,3 km/h (3 Bft) 97,83 %
11.02.2020 15:08 7,6 C 6,7 C 6,1 C 65 % 1005,6 hPa 0,0 l/m 0 min 0 min 73 W/m 19,3 km/h (3 Bft) 100,00 %
11.02.2020 15:10 7,5 C 6,7 C 6,1 C 65 % 1005,7 hPa 0,0 l/m 0 min 0 min 76 W/m 29,0 km/h (5 Bft) 97,87 %
11.02.2020 15:12 7,4 C 6,7 C 6,1 C 64 % 1005,6 hPa 0,0 l/m 0 min 0 min 72 W/m 35,4 km/h (5 Bft) 100,00 %
11.02.2020 15:14 7,3 C 6,1 C 5,6 C 64 % 1005,7 hPa 0,0 l/m 0 min 0 min 65 W/m 51,5 km/h (7 Bft) 100,00 %
11.02.2020 15:16 7,1 C 6,1 C 5,6 C 64 % 1005,7 hPa 0,0 l/m 0 min 0 min 55 W/m 45,1 km/h (6 Bft) 100,00 %
11.02.2020 15:18 7,1 C 6,1 C 5,6 C 65 % 1005,8 hPa 0,0 l/m 0 min 2 min 42 W/m 32,2 km/h (5 Bft) 100,00 %
11.02.2020 15:20 6,9 C 5,6 C 5,0 C 67 % 1006,0 hPa 0,0 l/m 0 min 2 min 27 W/m 38,6 km/h (5 Bft) 100,00 %
11.02.2020 15:22 6,8 C 5,0 C 4,4 C 67 % 1006,1 hPa 0,0 l/m 0 min 2 min 22 W/m 35,4 km/h (5 Bft) 97,87 %
11.02.2020 15:24 6,6 C 4,4 C 3,9 C 69 % 1006,0 hPa 0,0 l/m 0 min 2 min 32 W/m 25,7 km/h (4 Bft) 100,00 %
11.02.2020 15:26 6,4 C 5,0 C 3,9 C 70 % 1005,9 hPa 0,0 l/m 0 min 2 min 83 W/m 22,5 km/h (4 Bft) 100,00 %
11.02.2020 15:28 6,3 C 6,7 C 3,9 C 71 % 1005,9 hPa 0,0 l/m 2 min 2 min 257 W/m 32,2 km/h (5 Bft) 100,00 %
11.02.2020 15:30 6,2 C 7,2 C 4,4 C 72 % 1006,0 hPa 0,0 l/m 2 min 2 min 246 W/m 22,5 km/h (4 Bft) 100,00 %
11.02.2020 15:32 6,2 C 8,3 C 4,4 C 73 % 1005,9 hPa 0,0 l/m 2 min 2 min 223 W/m 19,3 km/h (3 Bft) 100,00 %
11.02.2020 15:34 6,2 C 8,3 C 4,4 C 73 % 1006,1 hPa 0,0 l/m 2 min 2 min 276 W/m 16,1 km/h (3 Bft) 100,00 %
11.02.2020 15:36 6,2 C 7,8 C 4,4 C 73 % 1006,0 hPa 0,0 l/m 2 min 2 min 211 W/m 16,1 km/h (3 Bft) 100,00 %
11.02.2020 15:38 6,1 C 7,2 C 4,4 C 74 % 1005,9 hPa 0,0 l/m 0 min 2 min 83 W/m 19,3 km/h (3 Bft) 100,00 %
11.02.2020 15:40 6,1 C 7,8 C 4,4 C 74 % 1006,0 hPa 0,0 l/m 2 min 0 min 184 W/m 16,1 km/h (3 Bft) 100,00 %
11.02.2020 15:42 6,1 C 7,8 C 4,4 C 74 % 1006,0 hPa 0,0 l/m 2 min 2 min 265 W/m 22,5 km/h (4 Bft) 100,00 %
11.02.2020 15:44 6,1 C 7,8 C 5,0 C 73 % 1006,0 hPa 0,0 l/m 2 min 2 min 172 W/m 35,4 km/h (5 Bft) 97,87 %
11.02.2020 15:46 6,1 C 7,8 C 5,0 C 73 % 1006,0 hPa 0,0 l/m 2 min 2 min 278 W/m 32,2 km/h (5 Bft) 100,00 %
11.02.2020 15:48 6,2 C 8,3 C 5,6 C 73 % 1006,0 hPa 0,0 l/m 2 min 2 min 267 W/m 38,6 km/h (5 Bft) 100,00 %
11.02.2020 15:50 6,2 C 8,3 C 5,6 C 72 % 1005,8 hPa 0,0 l/m 2 min 2 min 260 W/m 22,5 km/h (4 Bft) 100,00 %
11.02.2020 15:52 6,3 C 8,3 C 5,6 C 71 % 1005,8 hPa 0,0 l/m 2 min 2 min 238 W/m 25,7 km/h (4 Bft) 97,87 %
11.02.2020 15:54 6,3 C 8,3 C 5,6 C 71 % 1005,9 hPa 0,0 l/m 2 min 2 min 221 W/m 25,7 km/h (4 Bft) 100,00 %
11.02.2020 15:56 6,4 C 8,9 C 5,6 C 72 % 1006,0 hPa 0,0 l/m 2 min 0 min 243 W/m 29,0 km/h (5 Bft) 97,87 %
11.02.2020 15:58 6,5 C 7,8 C 5,6 C 72 % 1006,1 hPa 0,0 l/m 2 min 0 min 200 W/m 25,7 km/h (4 Bft) 100,00 %
11.02.2020 16:00 6,5 C 7,2 C 5,6 C 71 % 1006,1 hPa 0,0 l/m 2 min 2 min 120 W/m 16,1 km/h (3 Bft) 100,00 %
11.02.2020 16:02 6,5 C 6,7 C 5,6 C 70 % 1005,8 hPa 0,0 l/m 0 min 2 min 80 W/m 25,7 km/h (4 Bft) 100,00 %
11.02.2020 16:04 6,6 C 6,1 C 5,6 C 71 % 1005,8 hPa 0,0 l/m 0 min 2 min 70 W/m 19,3 km/h (3 Bft) 97,87 %
11.02.2020 16:06 6,5 C 6,1 C 5,6 C 71 % 1005,9 hPa 0,0 l/m 0 min 0 min 80 W/m 22,5 km/h (4 Bft) 100,00 %
11.02.2020 16:08 6,5 C 6,1 C 5,6 C 71 % 1006,0 hPa 0,0 l/m 0 min 0 min 91 W/m 19,3 km/h (3 Bft) 100,00 %
11.02.2020 16:10 6,5 C 6,1 C 5,6 C 70 % 1006,0 hPa 0,0 l/m 2 min 0 min 109 W/m 25,7 km/h (4 Bft) 100,00 %
11.02.2020 16:12 6,5 C 6,1 C 5,6 C 71 % 1006,1 hPa 0,0 l/m 2 min 0 min 126 W/m 19,3 km/h (3 Bft) 100,00 %
11.02.2020 16:14 6,5 C 6,7 C 6,1 C 71 % 1006,1 hPa 0,0 l/m 2 min 0 min 162 W/m 12,9 km/h (3 Bft) 100,00 %
11.02.2020 16:16 6,5 C 6,7 C 6,1 C 71 % 1006,1 hPa 0,0 l/m 2 min 0 min 140 W/m 19,3 km/h (3 Bft) 100,00 %
11.02.2020 16:18 6,6 C 6,7 C 6,1 C 71 % 1006,1 hPa 0,0 l/m 2 min 0 min 97 W/m 25,7 km/h (4 Bft) 97,87 %
11.02.2020 16:20 6,6 C 6,1 C 5,6 C 71 % 1006,2 hPa 0,0 l/m 2 min 0 min 94 W/m 29,0 km/h (5 Bft) 100,00 %
11.02.2020 16:22 6,5 C 5,6 C 5,0 C 70 % 1006,2 hPa 0,0 l/m 0 min 0 min 78 W/m 38,6 km/h (5 Bft) 100,00 %
11.02.2020 16:24 6,3 C 5,6 C 5,0 C 70 % 1006,2 hPa 0,0 l/m 0 min 0 min 81 W/m 32,2 km/h (5 Bft) 100,00 %
11.02.2020 16:26 6,2 C 5,0 C 5,0 C 71 % 1006,3 hPa 0,0 l/m 0 min 0 min 63 W/m 38,6 km/h (5 Bft) 95,74 %
11.02.2020 16:28 6,1 C 5,0 C 4,4 C 71 % 1006,6 hPa 0,0 l/m 0 min 0 min 53 W/m 35,4 km/h (5 Bft) 97,87 %
11.02.2020 16:30 5,9 C 5,0 C 4,4 C 73 % 1006,4 hPa 0,0 l/m 2 min 0 min 91 W/m 35,4 km/h (5 Bft) 97,87 %
11.02.2020 16:32 5,8 C 5,0 C 4,4 C 73 % 1006,4 hPa 0,0 l/m 2 min 0 min 94 W/m 29,0 km/h (5 Bft) 97,87 %
11.02.2020 16:34 5,7 C 4,4 C 4,4 C 74 % 1006,4 hPa 0,0 l/m 0 min 0 min 64 W/m 32,2 km/h (5 Bft) 97,83 %
11.02.2020 16:36 5,6 C 4,4 C 4,4 C 75 % 1006,3 hPa 0,0 l/m 0 min 0 min 46 W/m 25,7 km/h (4 Bft) 97,87 %
11.02.2020 16:38 5,5 C 4,4 C 3,9 C 75 % 1006,3 hPa 0,0 l/m 0 min 0 min 36 W/m 25,7 km/h (4 Bft) 97,87 %
11.02.2020 16:40 5,4 C 4,4 C 3,9 C 76 % 1006,4 hPa 0,0 l/m 0 min 0 min 32 W/m 22,5 km/h (4 Bft) 97,87 %
11.02.2020 16:42 5,3 C 4,4 C 3,9 C 76 % 1006,3 hPa 0,0 l/m 0 min 0 min 32 W/m 32,2 km/h (5 Bft) 95,74 %
11.02.2020 16:44 5,3 C 4,4 C 3,9 C 76 % 1006,3 hPa 0,0 l/m 0 min 0 min 39 W/m 19,3 km/h (3 Bft) 97,87 %
11.02.2020 16:46 5,2 C 4,4 C 3,9 C 76 % 1006,5 hPa 0,0 l/m 0 min 0 min 52 W/m 51,5 km/h (7 Bft) 100,00 %
11.02.2020 16:48 5,2 C 4,4 C 3,9 C 76 % 1006,4 hPa 0,0 l/m 2 min 0 min 63 W/m 19,3 km/h (3 Bft) 97,87 %
11.02.2020 16:50 5,2 C 5,0 C 3,9 C 76 % 1006,5 hPa 0,0 l/m 2 min 0 min 69 W/m 16,1 km/h (3 Bft) 95,74 %
11.02.2020 16:52 5,1 C 5,0 C 4,4 C 77 % 1006,5 hPa 0,0 l/m 2 min 0 min 86 W/m 25,7 km/h (4 Bft) 95,74 %
11.02.2020 16:54 5,1 C 5,0 C 4,4 C 77 % 1006,4 hPa 0,0 l/m 2 min 0 min 71 W/m 12,9 km/h (3 Bft) 95,74 %
11.02.2020 16:56 5,1 C 4,4 C 4,4 C 77 % 1006,5 hPa 0,0 l/m 2 min 0 min 49 W/m 9,7 km/h (2 Bft) 93,62 %
11.02.2020 16:58 5,1 C 4,4 C 3,9 C 77 % 1006,3 hPa 0,0 l/m 0 min 0 min 42 W/m 16,1 km/h (3 Bft) 91,30 %
11.02.2020 17:00 5,1 C 4,4 C 3,9 C 77 % 1006,4 hPa 0,0 l/m 0 min 0 min 40 W/m 12,9 km/h (3 Bft) 93,62 %
11.02.2020 17:02 5,1 C 4,4 C 3,9 C 77 % 1006,3 hPa 0,0 l/m 0 min 0 min 36 W/m 9,7 km/h (2 Bft) 87,23 %
11.02.2020 17:04 5,1 C 4,4 C 3,9 C 76 % 1006,4 hPa 0,0 l/m 0 min 0 min 32 W/m 9,7 km/h (2 Bft) 93,62 %
11.02.2020 17:06 5,1 C 4,4 C 3,9 C 77 % 1006,3 hPa 0,0 l/m 0 min 0 min 27 W/m 16,1 km/h (3 Bft) 93,62 %
11.02.2020 17:08 5,1 C 4,4 C 3,9 C 77 % 1006,4 hPa 0,0 l/m 0 min 0 min 24 W/m 12,9 km/h (3 Bft) 91,30 %
11.02.2020 17:10 5,1 C 4,4 C 4,4 C 77 % 1006,3 hPa 0,0 l/m 0 min 0 min 21 W/m 22,5 km/h (4 Bft) 93,62 %
11.02.2020 17:12 5,1 C 5,0 C 4,4 C 76 % 1006,3 hPa 0,0 l/m 0 min 0 min 21 W/m 29,0 km/h (5 Bft) 95,74 %
11.02.2020 17:14 5,2 C 5,0 C 4,4 C 76 % 1006,4 hPa 0,0 l/m 0 min 0 min 20 W/m 16,1 km/h (3 Bft) 93,62 %
11.02.2020 17:16 5,2 C 5,0 C 4,4 C 75 % 1006,4 hPa 0,0 l/m 0 min 0 min 18 W/m 12,9 km/h (3 Bft) 89,36 %
11.02.2020 17:18 5,2 C 5,0 C 4,4 C 75 % 1006,4 hPa 0,0 l/m 0 min 0 min 9 W/m 32,2 km/h (5 Bft) 93,62 %
11.02.2020 17:20 5,3 C 5,0 C 4,4 C 75 % 1006,6 hPa 0,0 l/m 0 min 0 min 0 W/m 12,9 km/h (3 Bft) 93,48 %
11.02.2020 17:22 5,3 C 5,0 C 4,4 C 75 % 1006,7 hPa 0,0 l/m 0 min 0 min 0 W/m 22,5 km/h (4 Bft) 93,62 %
11.02.2020 17:24 5,3 C 5,0 C 4,4 C 76 % 1006,7 hPa 0,0 l/m 0 min 0 min 0 W/m 12,9 km/h (3 Bft) 93,62 %
11.02.2020 17:26 5,3 C 4,4 C 3,9 C 76 % 1006,7 hPa 0,0 l/m 0 min 0 min 0 W/m 9,7 km/h (2 Bft) 91,49 %
11.02.2020 17:28 5,3 C 4,4 C 3,9 C 76 % 1006,7 hPa 0,0 l/m 0 min 0 min 0 W/m 16,1 km/h (3 Bft) 93,62 %
11.02.2020 17:30 5,3 C 4,4 C 3,9 C 76 % 1006,8 hPa 0,0 l/m 0 min 0 min 0 W/m 16,1 km/h (3 Bft) 95,74 %
11.02.2020 17:32 5,3 C 4,4 C 3,9 C 76 % 1007,1 hPa 0,0 l/m 0 min 0 min 0 W/m 12,9 km/h (3 Bft) 95,65 %
11.02.2020 17:34 5,3 C 4,4 C 3,9 C 77 % 1007,1 hPa 0,0 l/m 0 min 0 min 0 W/m 9,7 km/h (2 Bft) 95,74 %
11.02.2020 17:36 5,2 C 3,9 C 3,9 C 77 % 1007,1 hPa 0,0 l/m 0 min 0 min 0 W/m 16,1 km/h (3 Bft) 97,87 %
11.02.2020 17:38 5,2 C 3,9 C 3,9 C 77 % 1007,3 hPa 0,0 l/m 0 min 0 min 0 W/m 29,0 km/h (5 Bft) 97,87 %
11.02.2020 17:40 5,1 C 3,9 C 3,3 C 77 % 1007,3 hPa 0,0 l/m 0 min 2 min 0 W/m 38,6 km/h (5 Bft) 95,74 %
11.02.2020 17:42 5,1 C 2,8 C 2,8 C 78 % 1007,1 hPa 0,0 l/m 0 min 2 min 0 W/m 35,4 km/h (5 Bft) 97,87 %
11.02.2020 17:44 4,9 C 2,8 C 2,2 C 79 % 1006,9 hPa 0,0 l/m 0 min 2 min 0 W/m 38,6 km/h (5 Bft) 95,65 %
11.02.2020 17:46 4,9 C 2,8 C 2,2 C 80 % 1006,9 hPa 0,0 l/m 0 min 2 min 0 W/m 19,3 km/h (3 Bft) 97,87 %
11.02.2020 17:48 4,8 C 2,8 C 2,2 C 80 % 1006,9 hPa 0,0 l/m 0 min 2 min 0 W/m 16,1 km/h (3 Bft) 100,00 %
11.02.2020 17:50 4,7 C 2,8 C 2,2 C 81 % 1006,8 hPa 0,0 l/m 0 min 2 min 0 W/m 16,1 km/h (3 Bft) 100,00 %
11.02.2020 17:52 4,6 C 2,8 C 2,2 C 81 % 1006,9 hPa 0,0 l/m 0 min 2 min 0 W/m 16,1 km/h (3 Bft) 97,87 %
11.02.2020 17:54 4,6 C 2,8 C 2,2 C 81 % 1006,8 hPa 0,0 l/m 0 min 0 min 0 W/m 22,5 km/h (4 Bft) 100,00 %
11.02.2020 17:56 4,4 C 2,8 C 2,2 C 81 % 1006,9 hPa 0,0 l/m 0 min 0 min 0 W/m 16,1 km/h (3 Bft) 100,00 %
11.02.2020 17:58 4,4 C 2,8 C 2,2 C 82 % 1006,9 hPa 0,0 l/m 0 min 2 min 0 W/m 9,7 km/h (2 Bft) 100,00 %
11.02.2020 18:00 4,4 C 2,8 C 2,2 C 82 % 1006,9 hPa 0,0 l/m 0 min 0 min 0 W/m 12,9 km/h (3 Bft) 97,87 %
11.02.2020 18:02 4,3 C 3,3 C 2,8 C 82 % 1007,0 hPa 0,0 l/m 0 min 0 min 0 W/m 9,7 km/h (2 Bft) 100,00 %
11.02.2020 18:04 4,3 C 3,3 C 2,8 C 82 % 1007,0 hPa 0,0 l/m 0 min 2 min 0 W/m 9,7 km/h (2 Bft) 100,00 %
11.02.2020 18:06 4,3 C 3,3 C 2,8 C 82 % 1007,1 hPa 0,0 l/m 0 min 0 min 0 W/m 16,1 km/h (3 Bft) 100,00 %
11.02.2020 18:08 4,3 C 3,3 C 2,8 C 82 % 1007,1 hPa 0,0 l/m 0 min 0 min 0 W/m 22,5 km/h (4 Bft) 97,83 %
11.02.2020 18:10 4,2 C 3,3 C 2,8 C 82 % 1007,1 hPa 0,0 l/m 0 min 0 min 0 W/m 19,3 km/h (3 Bft) 100,00 %
11.02.2020 18:12 4,2 C 3,3 C 2,8 C 83 % 1007,2 hPa 0,0 l/m 0 min 0 min 0 W/m 12,9 km/h (3 Bft) 97,87 %
11.02.2020 18:14 4,2 C 3,3 C 2,8 C 83 % 1007,3 hPa 0,0 l/m 0 min 0 min 0 W/m 12,9 km/h (3 Bft) 100,00 %
11.02.2020 18:16 4,2 C 3,9 C 2,8 C 83 % 1007,5 hPa 0,0 l/m 0 min 0 min 0 W/m 19,3 km/h (3 Bft) 100,00 %
11.02.2020 18:18 4,3 C 3,9 C 3,3 C 83 % 1007,7 hPa 0,0 l/m 0 min 2 min 0 W/m 35,4 km/h (5 Bft) 100,00 %
11.02.2020 18:20 4,3 C 3,9 C 2,8 C 82 % 1007,7 hPa 0,0 l/m 0 min 2 min 0 W/m 22,5 km/h (4 Bft) 97,87 %
11.02.2020 18:22 4,3 C 3,3 C 2,2 C 81 % 1007,6 hPa 0,0 l/m 0 min 2 min 0 W/m 25,7 km/h (4 Bft) 100,00 %
11.02.2020 18:24 4,2 C 2,8 C 2,2 C 80 % 1007,6 hPa 0,0 l/m 0 min 2 min 0 W/m 35,4 km/h (5 Bft) 100,00 %
11.02.2020 18:26 4,2 C 3,3 C 2,2 C 79 % 1007,3 hPa 0,0 l/m 0 min 2 min 0 W/m 25,7 km/h (4 Bft) 100,00 %
11.02.2020 18:28 4,1 C 3,3 C 2,2 C 78 % 1007,2 hPa 0,0 l/m 0 min 2 min 0 W/m 29,0 km/h (5 Bft) 100,00 %
11.02.2020 18:30 4,1 C 3,3 C 2,8 C 78 % 1007,2 hPa 0,0 l/m 0 min 2 min 0 W/m 19,3 km/h (3 Bft) 97,83 %
11.02.2020 18:32 4,1 C 3,3 C 2,8 C 77 % 1007,1 hPa 0,0 l/m 0 min 2 min 0 W/m 35,4 km/h (5 Bft) 72,34 %
11.02.2020 18:34 4,2 C 3,3 C 2,8 C 77 % 1007,1 hPa 0,0 l/m 0 min 0 min 0 W/m 35,4 km/h (5 Bft) 84,44 %
11.02.2020 18:36 4,2 C 3,3 C 2,8 C 77 % 1007,1 hPa 0,0 l/m 0 min 0 min 0 W/m 25,7 km/h (4 Bft) 100,00 %
11.02.2020 18:38 4,2 C 3,9 C 2,8 C 77 % 1007,1 hPa 0,0 l/m 0 min 0 min 0 W/m 32,2 km/h (5 Bft) 97,87 %
11.02.2020 18:40 4,2 C 3,3 C 2,8 C 77 % 1007,2 hPa 0,0 l/m 0 min 0 min 0 W/m 19,3 km/h (3 Bft) 100,00 %
11.02.2020 18:42 4,2 C 3,9 C 2,8 C 77 % 1007,3 hPa 0,0 l/m 0 min 0 min 0 W/m 19,3 km/h (3 Bft) 97,83 %
11.02.2020 18:44 4,3 C 3,3 C 2,8 C 77 % 1007,4 hPa 0,0 l/m 0 min 0 min 0 W/m 16,1 km/h (3 Bft) 100,00 %
11.02.2020 18:46 4,3 C 3,3 C 2,8 C 78 % 1007,5 hPa 0,0 l/m 0 min 0 min 0 W/m 41,8 km/h (6 Bft) 97,87 %
11.02.2020 18:48 4,3 C 3,3 C 2,8 C 78 % 1007,5 hPa 0,0 l/m 0 min 0 min 0 W/m 29,0 km/h (5 Bft) 100,00 %
11.02.2020 18:50 4,3 C 3,3 C 2,8 C 79 % 1007,6 hPa 0,0 l/m 0 min 0 min 0 W/m 22,5 km/h (4 Bft) 100,00 %
11.02.2020 18:52 4,3 C 3,3 C 2,8 C 80 % 1007,6 hPa 0,0 l/m 0 min 0 min 0 W/m 22,5 km/h (4 Bft) 100,00 %
11.02.2020 18:54 4,3 C 3,3 C 2,8 C 81 % 1007,6 hPa 0,0 l/m 0 min 0 min 0 W/m 32,2 km/h (5 Bft) 100,00 %
11.02.2020 18:56 4,3 C 3,3 C 2,8 C 81 % 1007,6 hPa 0,0 l/m 0 min 2 min 0 W/m 16,1 km/h (3 Bft) 100,00 %
11.02.2020 18:58 4,2 C 3,3 C 2,8 C 81 % 1007,7 hPa 0,0 l/m 0 min 2 min 0 W/m 12,9 km/h (3 Bft) 100,00 %
11.02.2020 19:00 4,2 C 2,8 C 2,8 C 82 % 1007,7 hPa 0,0 l/m 0 min 2 min 0 W/m 12,9 km/h (3 Bft) 95,74 %
11.02.2020 19:02 4,2 C 2,8 C 2,8 C 82 % 1007,8 hPa 0,0 l/m 0 min 2 min 0 W/m 25,7 km/h (4 Bft) 97,87 %
11.02.2020 19:04 4,2 C 3,3 C 2,8 C 82 % 1007,8 hPa 0,0 l/m 0 min 2 min 0 W/m 29,0 km/h (5 Bft) 100,00 %
11.02.2020 19:06 4,2 C 3,3 C 2,8 C 82 % 1007,9 hPa 0,0 l/m 0 min 0 min 0 W/m 22,5 km/h (4 Bft) 100,00 %
11.02.2020 19:08 4,2 C 3,3 C 2,8 C 82 % 1007,9 hPa 0,0 l/m 0 min 0 min 0 W/m 16,1 km/h (3 Bft) 97,87 %
11.02.2020 19:10 4,2 C 3,3 C 2,8 C 82 % 1007,8 hPa 0,0 l/m 0 min 0 min 0 W/m 19,3 km/h (3 Bft) 100,00 %
11.02.2020 19:12 4,2 C 3,3 C 2,8 C 82 % 1007,9 hPa 0,0 l/m 0 min 0 min 0 W/m 22,5 km/h (4 Bft) 100,00 %
11.02.2020 19:14 4,2 C 3,9 C 2,8 C 82 % 1007,8 hPa 0,0 l/m 0 min 0 min 0 W/m 19,3 km/h (3 Bft) 97,87 %
11.02.2020 19:16 4,2 C 3,9 C 2,8 C 82 % 1007,9 hPa 0,0 l/m 0 min 0 min 0 W/m 19,3 km/h (3 Bft) 97,83 %
11.02.2020 19:18 4,2 C 3,9 C 3,3 C 81 % 1008,0 hPa 0,0 l/m 0 min 0 min 0 W/m 29,0 km/h (5 Bft) 97,87 %
11.02.2020 19:20 4,3 C 3,9 C 3,3 C 81 % 1008,1 hPa 0,0 l/m 0 min 2 min 0 W/m 22,5 km/h (4 Bft) 95,74 %
11.02.2020 19:22 4,3 C 3,3 C 2,8 C 81 % 1008,1 hPa 0,0 l/m 0 min 2 min 0 W/m 35,4 km/h (5 Bft) 97,87 %
11.02.2020 19:24 4,3 C 2,8 C 2,2 C 82 % 1008,1 hPa 0,0 l/m 0 min 2 min 0 W/m 19,3 km/h (3 Bft) 95,74 %
11.02.2020 19:26 4,3 C 2,8 C 2,2 C 82 % 1008,2 hPa 0,0 l/m 0 min 2 min 0 W/m 41,8 km/h (6 Bft) 97,87 %
11.02.2020 19:28 4,3 C 2,8 C 2,2 C 82 % 1008,2 hPa 0,0 l/m 0 min 2 min 0 W/m 25,7 km/h (4 Bft) 97,83 %
11.02.2020 19:30 4,3 C 3,3 C 2,2 C 82 % 1008,1 hPa 0,0 l/m 0 min 2 min 0 W/m 32,2 km/h (5 Bft) 97,87 %
11.02.2020 19:32 4,3 C 2,8 C 2,2 C 82 % 1008,2 hPa 0,0 l/m 0 min 2 min 0 W/m 19,3 km/h (3 Bft) 95,74 %
11.02.2020 19:34 4,2 C 3,3 C 2,8 C 82 % 1008,2 hPa 0,0 l/m 0 min 2 min 0 W/m 35,4 km/h (5 Bft) 97,87 %
11.02.2020 19:36 4,2 C 2,8 C 2,2 C 82 % 1008,2 hPa 0,0 l/m 0 min 2 min 0 W/m 19,3 km/h (3 Bft) 97,87 %
11.02.2020 19:38 4,2 C 3,3 C 2,8 C 83 % 1008,2 hPa 0,0 l/m 0 min 2 min 0 W/m 29,0 km/h (5 Bft) 97,87 %
11.02.2020 19:40 4,1 C 3,3 C 2,2 C 83 % 1008,3 hPa 0,0 l/m 0 min 2 min 0 W/m 29,0 km/h (5 Bft) 97,83 %
11.02.2020 19:42 4,1 C 3,3 C 2,2 C 83 % 1008,4 hPa 0,0 l/m 0 min 2 min 0 W/m 22,5 km/h (4 Bft) 97,87 %
11.02.2020 19:44 4,1 C 3,3 C 2,2 C 83 % 1008,3 hPa 0,0 l/m 0 min 2 min 0 W/m 25,7 km/h (4 Bft) 97,87 %
11.02.2020 19:46 4,1 C 3,3 C 2,2 C 84 % 1008,3 hPa 0,0 l/m 0 min 2 min 0 W/m 12,9 km/h (3 Bft) 97,87 %
11.02.2020 19:48 4,0 C 3,3 C 2,2 C 83 % 1008,4 hPa 0,0 l/m 0 min 2 min 0 W/m 19,3 km/h (3 Bft) 97,87 %
11.02.2020 19:50 4,0 C 2,8 C 2,2 C 84 % 1008,5 hPa 0,0 l/m 0 min 2 min 0 W/m 16,1 km/h (3 Bft) 95,74 %
11.02.2020 19:52 4,0 C 2,8 C 2,2 C 84 % 1008,4 hPa 0,0 l/m 0 min 2 min 0 W/m 16,1 km/h (3 Bft) 100,00 %
11.02.2020 19:54 3,9 C 2,8 C 2,2 C 84 % 1008,4 hPa 0,0 l/m 0 min 2 min 0 W/m 19,3 km/h (3 Bft) 97,87 %
11.02.2020 19:56 3,9 C 2,8 C 2,2 C 84 % 1008,3 hPa 0,0 l/m 0 min 2 min 0 W/m 29,0 km/h (5 Bft) 100,00 %
11.02.2020 19:58 3,9 C 2,8 C 2,2 C 84 % 1008,3 hPa 0,0 l/m 0 min 2 min 0 W/m 19,3 km/h (3 Bft) 100,00 %
11.02.2020 20:00 3,9 C 2,8 C 2,2 C 84 % 1008,4 hPa 0,0 l/m 0 min 2 min 0 W/m 19,3 km/h (3 Bft) 100,00 %
11.02.2020 20:02 3,9 C 2,8 C 2,2 C 84 % 1008,3 hPa 0,0 l/m 0 min 2 min 0 W/m 16,1 km/h (3 Bft) 97,87 %
11.02.2020 20:04 3,8 C 2,8 C 2,2 C 84 % 1008,4 hPa 0,0 l/m 0 min 0 min 0 W/m 22,5 km/h (4 Bft) 97,83 %
11.02.2020 20:06 3,8 C 2,8 C 2,2 C 84 % 1008,4 hPa 0,0 l/m 0 min 0 min 0 W/m 12,9 km/h (3 Bft) 97,87 %
11.02.2020 20:08 3,8 C 2,8 C 2,2 C 84 % 1008,4 hPa 0,0 l/m 0 min 0 min 0 W/m 16,1 km/h (3 Bft) 97,87 %
11.02.2020 20:10 3,8 C 2,8 C 2,2 C 84 % 1008,4 hPa 0,0 l/m 0 min 0 min 0 W/m 16,1 km/h (3 Bft) 97,87 %
11.02.2020 20:12 3,8 C 2,8 C 2,2 C 84 % 1008,5 hPa 0,0 l/m 0 min 0 min 0 W/m 12,9 km/h (3 Bft) 97,87 %
11.02.2020 20:14 3,8 C 2,8 C 2,2 C 84 % 1008,5 hPa 0,0 l/m 0 min 0 min 0 W/m 9,7 km/h (2 Bft) 100,00 %
11.02.2020 20:16 3,8 C 2,8 C 2,2 C 84 % 1008,6 hPa 0,0 l/m 0 min 2 min 0 W/m 16,1 km/h (3 Bft) 97,87 %
11.02.2020 20:18 3,8 C 2,8 C 2,2 C 84 % 1008,6 hPa 0,0 l/m 0 min 2 min 0 W/m 16,1 km/h (3 Bft) 97,87 %
11.02.2020 20:20 3,8 C 3,3 C 2,2 C 84 % 1008,6 hPa 0,0 l/m 0 min 0 min 0 W/m 12,9 km/h (3 Bft) 95,74 %
11.02.2020 20:22 3,8 C 3,3 C 2,2 C 84 % 1008,7 hPa 0,0 l/m 0 min 2 min 0 W/m 12,9 km/h (3 Bft) 97,87 %
11.02.2020 20:24 3,8 C 3,3 C 2,2 C 84 % 1008,7 hPa 0,0 l/m 0 min 2 min 0 W/m 22,5 km/h (4 Bft) 95,74 %
11.02.2020 20:26 3,8 C 3,3 C 2,2 C 84 % 1008,7 hPa 0,0 l/m 0 min 2 min 0 W/m 22,5 km/h (4 Bft) 97,83 %
11.02.2020 20:28 3,8 C 2,8 C 2,2 C 84 % 1008,7 hPa 0,0 l/m 0 min 2 min 0 W/m 16,1 km/h (3 Bft) 95,74 %
11.02.2020 20:30 3,8 C 3,3 C 2,8 C 84 % 1008,7 hPa 0,0 l/m 0 min 0 min 0 W/m 16,1 km/h (3 Bft) 97,87 %
11.02.2020 20:32 3,8 C 3,3 C 2,2 C 84 % 1008,8 hPa 0,0 l/m 0 min 2 min 0 W/m 16,1 km/h (3 Bft) 55,56 %
11.02.2020 20:34 3,8 C 3,3 C 2,8 C 84 % 1008,8 hPa 0,0 l/m 0 min 0 min 0 W/m 12,9 km/h (3 Bft) 97,87 %
11.02.2020 20:36 3,8 C 3,3 C 2,8 C 84 % 1008,8 hPa 0,0 l/m 0 min 0 min 0 W/m 19,3 km/h (3 Bft) 93,62 %
11.02.2020 20:38 3,8 C 3,3 C 2,8 C 84 % 1008,8 hPa 0,0 l/m 0 min 0 min 0 W/m 22,5 km/h (4 Bft) 95,65 %
11.02.2020 20:40 3,8 C 3,3 C 2,8 C 84 % 1008,8 hPa 0,0 l/m 0 min 0 min 0 W/m 19,3 km/h (3 Bft) 100,00 %
11.02.2020 20:42 3,9 C 3,3 C 2,8 C 83 % 1008,8 hPa 0,0 l/m 0 min 2 min 0 W/m 25,7 km/h (4 Bft) 95,74 %
11.02.2020 20:44 3,9 C 3,3 C 2,8 C 83 % 1008,9 hPa 0,0 l/m 0 min 2 min 0 W/m 16,1 km/h (3 Bft) 95,74 %
11.02.2020 20:46 3,9 C 3,9 C 2,8 C 83 % 1008,9 hPa 0,0 l/m 0 min 2 min 0 W/m 22,5 km/h (4 Bft) 95,74 %
11.02.2020 20:48 4,0 C 3,9 C 2,8 C 82 % 1008,9 hPa 0,0 l/m 0 min 0 min 0 W/m 32,2 km/h (5 Bft) 95,74 %
11.02.2020 20:50 4,1 C 3,9 C 2,8 C 82 % 1009,0 hPa 0,0 l/m 0 min 2 min 0 W/m 16,1 km/h (3 Bft) 95,65 %
11.02.2020 20:52 4,1 C 3,9 C 2,8 C 82 % 1009,0 hPa 0,0 l/m 0 min 0 min 0 W/m 16,1 km/h (3 Bft) 95,74 %
11.02.2020 20:54 4,1 C 3,9 C 2,8 C 82 % 1009,0 hPa 0,0 l/m 0 min 0 min 0 W/m 19,3 km/h (3 Bft) 93,62 %
11.02.2020 20:56 4,1 C 3,9 C 2,8 C 82 % 1008,9 hPa 0,0 l/m 0 min 0 min 0 W/m 22,5 km/h (4 Bft) 97,87 %
11.02.2020 20:58 4,2 C 3,9 C 2,8 C 81 % 1008,9 hPa 0,0 l/m 0 min 0 min 0 W/m 16,1 km/h (3 Bft) 97,87 %
11.02.2020 21:00 4,2 C 3,3 C 2,8 C 81 % 1008,9 hPa 0,0 l/m 0 min 0 min 0 W/m 16,1 km/h (3 Bft) 97,87 %
11.02.2020 21:02 4,2 C 3,3 C 2,8 C 81 % 1009,0 hPa 0,0 l/m 0 min 0 min 0 W/m 19,3 km/h (3 Bft) 97,83 %
11.02.2020 21:04 4,2 C 3,3 C 2,8 C 81 % 1009,0 hPa 0,0 l/m 0 min 0 min 0 W/m 16,1 km/h (3 Bft) 97,87 %
11.02.2020 21:06 4,2 C 3,3 C 2,8 C 81 % 1009,0 hPa 0,0 l/m 0 min 0 min 0 W/m 12,9 km/h (3 Bft) 97,87 %
11.02.2020 21:08 4,2 C 3,9 C 2,8 C 81 % 1009,0 hPa 0,2 l/m 0 min 0 min 0 W/m 25,7 km/h (4 Bft) 97,87 %
11.02.2020 21:10 4,2 C 3,9 C 2,8 C 81 % 1009,3 hPa 0,0 l/m 0 min 2 min 0 W/m 41,8 km/h (6 Bft) 97,87 %
11.02.2020 21:12 4,3 C 3,3 C 2,2 C 80 % 1009,1 hPa 0,0 l/m 0 min 2 min 0 W/m 25,7 km/h (4 Bft) 97,83 %
11.02.2020 21:14 4,3 C 3,3 C 2,2 C 80 % 1009,0 hPa 0,0 l/m 0 min 2 min 0 W/m 22,5 km/h (4 Bft) 95,74 %
11.02.2020 21:16 4,3 C 3,3 C 2,2 C 80 % 1009,1 hPa 0,0 l/m 0 min 2 min 0 W/m 16,1 km/h (3 Bft) 95,74 %
11.02.2020 21:18 4,3 C 3,3 C 2,2 C 80 % 1009,1 hPa 0,0 l/m 0 min 2 min 0 W/m 25,7 km/h (4 Bft) 97,87 %
11.02.2020 21:20 4,4 C 3,3 C 2,2 C 80 % 1009,1 hPa 0,0 l/m 0 min 2 min 0 W/m 12,9 km/h (3 Bft) 95,74 %
11.02.2020 21:22 4,4 C 3,3 C 2,2 C 80 % 1009,1 hPa 0,0 l/m 0 min 2 min 0 W/m 22,5 km/h (4 Bft) 97,87 %
11.02.2020 21:24 4,4 C 3,3 C 2,8 C 79 % 1009,1 hPa 0,0 l/m 0 min 2 min 0 W/m 19,3 km/h (3 Bft) 95,74 %
11.02.2020 21:26 4,4 C 3,3 C 2,8 C 79 % 1009,1 hPa 0,0 l/m 0 min 2 min 0 W/m 19,3 km/h (3 Bft) 95,65 %
11.02.2020 21:28 4,4 C 3,9 C 2,8 C 79 % 1009,1 hPa 0,0 l/m 0 min 2 min 0 W/m 19,3 km/h (3 Bft) 97,87 %
11.02.2020 21:30 4,4 C 3,9 C 2,8 C 79 % 1009,1 hPa 0,0 l/m 0 min 2 min 0 W/m 12,9 km/h (3 Bft) 80,85 %
11.02.2020 21:32 4,4 C 3,9 C 2,8 C 79 % 1009,1 hPa 0,0 l/m 0 min 2 min 0 W/m 32,2 km/h (5 Bft) 65,85 %
11.02.2020 21:34 4,4 C 3,9 C 2,8 C 78 % 1009,1 hPa 0,0 l/m 0 min 2 min 0 W/m 19,3 km/h (3 Bft) 93,62 %
11.02.2020 21:36 4,4 C 3,9 C 2,8 C 78 % 1009,1 hPa 0,0 l/m 0 min 2 min 0 W/m 25,7 km/h (4 Bft) 95,65 %
11.02.2020 21:38 4,5 C 3,9 C 2,8 C 78 % 1009,1 hPa 0,0 l/m 0 min 2 min 0 W/m 22,5 km/h (4 Bft) 97,87 %
11.02.2020 21:40 4,5 C 3,9 C 3,3 C 78 % 1009,2 hPa 0,0 l/m 0 min 2 min 0 W/m 25,7 km/h (4 Bft) 93,62 %
11.02.2020 21:42 4,5 C 3,9 C 3,3 C 77 % 1009,2 hPa 0,0 l/m 0 min 2 min 0 W/m 19,3 km/h (3 Bft) 95,74 %
11.02.2020 21:44 4,5 C 3,9 C 3,3 C 77 % 1009,3 hPa 0,0 l/m 0 min 2 min 0 W/m 25,7 km/h (4 Bft) 93,62 %
11.02.2020 21:46 4,6 C 3,9 C 3,3 C 77 % 1009,3 hPa 0,0 l/m 0 min 2 min 0 W/m 29,0 km/h (5 Bft) 93,62 %
11.02.2020 21:48 4,6 C 3,9 C 3,3 C 77 % 1009,3 hPa 0,0 l/m 0 min 2 min 0 W/m 25,7 km/h (4 Bft) 95,65 %
11.02.2020 21:50 4,6 C 3,9 C 3,3 C 77 % 1009,3 hPa 0,0 l/m 0 min 2 min 0 W/m 19,3 km/h (3 Bft) 93,62 %
11.02.2020 21:52 4,6 C 3,9 C 3,3 C 77 % 1009,3 hPa 0,0 l/m 0 min 2 min 0 W/m 19,3 km/h (3 Bft) 97,87 %
11.02.2020 21:54 4,6 C 4,4 C 3,3 C 77 % 1009,3 hPa 0,0 l/m 0 min 2 min 0 W/m 25,7 km/h (4 Bft) 93,62 %
11.02.2020 21:56 4,7 C 4,4 C 3,3 C 77 % 1009,3 hPa 0,0 l/m 0 min 0 min 0 W/m 22,5 km/h (4 Bft) 95,74 %
11.02.2020 21:58 4,7 C 4,4 C 3,3 C 77 % 1009,4 hPa 0,0 l/m 0 min 0 min 0 W/m 29,0 km/h (5 Bft) 97,87 %
11.02.2020 22:00 4,7 C 4,4 C 3,3 C 76 % 1009,4 hPa 0,0 l/m 0 min 0 min 0 W/m 25,7 km/h (4 Bft) 97,83 %
11.02.2020 22:02 4,7 C 4,4 C 3,3 C 76 % 1009,4 hPa 0,0 l/m 0 min 0 min 0 W/m 25,7 km/h (4 Bft) 97,87 %
11.02.2020 22:04 4,8 C 4,4 C 3,3 C 76 % 1009,5 hPa 0,0 l/m 0 min 0 min 0 W/m 25,7 km/h (4 Bft) 95,74 %
11.02.2020 22:06 4,8 C 4,4 C 3,3 C 76 % 1009,5 hPa 0,0 l/m 0 min 0 min 0 W/m 16,1 km/h (3 Bft) 97,87 %
11.02.2020 22:08 4,8 C 4,4 C 3,3 C 76 % 1009,5 hPa 0,0 l/m 0 min 0 min 0 W/m 22,5 km/h (4 Bft) 97,87 %
11.02.2020 22:10 4,8 C 4,4 C 3,3 C 76 % 1009,5 hPa 0,0 l/m 0 min 0 min 0 W/m 25,7 km/h (4 Bft) 97,87 %
11.02.2020 22:12 4,8 C 4,4 C 3,3 C 76 % 1009,5 hPa 0,0 l/m 0 min 0 min 0 W/m 25,7 km/h (4 Bft) 100,00 %
11.02.2020 22:14 4,8 C 4,4 C 3,3 C 76 % 1009,5 hPa 0,0 l/m 0 min 0 min 0 W/m 19,3 km/h (3 Bft) 100,00 %
11.02.2020 22:16 4,8 C 3,9 C 3,3 C 76 % 1009,6 hPa 0,0 l/m 0 min 0 min 0 W/m 16,1 km/h (3 Bft) 100,00 %
11.02.2020 22:18 4,8 C 4,4 C 3,3 C 76 % 1009,5 hPa 0,0 l/m 0 min 0 min 0 W/m 38,6 km/h (5 Bft) 100,00 %
11.02.2020 22:20 4,8 C 4,4 C 3,3 C 76 % 1009,8 hPa 0,0 l/m 0 min 0 min 0 W/m 25,7 km/h (4 Bft) 100,00 %
11.02.2020 22:25 4,8 C 3,9 C 3,3 C 76 % 1009,9 hPa 0,0 l/m 0 min 5 min 0 W/m 29,0 km/h (5 Bft) 100,00 %
11.02.2020 22:28 4,8 C 3,9 C 2,8 C 77 % 1009,8 hPa 0,0 l/m 0 min 3 min 0 W/m 16,1 km/h (3 Bft) 97,07 %
11.02.2020 22:30 4,8 C 3,9 C 2,8 C 77 % 1009,9 hPa 0,0 l/m 0 min 2 min 0 W/m 35,4 km/h (5 Bft) 100,00 %
11.02.2020 22:32 4,8 C 3,9 C 2,8 C 77 % 1009,8 hPa 0,0 l/m 0 min 2 min 0 W/m 35,4 km/h (5 Bft) 100,00 %
11.02.2020 22:34 4,8 C 3,9 C 2,8 C 77 % 1009,7 hPa 0,0 l/m 0 min 2 min 0 W/m 16,1 km/h (3 Bft) 100,00 %
11.02.2020 22:36 4,8 C 3,9 C 2,8 C 76 % 1009,7 hPa 0,0 l/m 0 min 2 min 0 W/m 25,7 km/h (4 Bft) 100,00 %
11.02.2020 22:38 4,8 C 3,9 C 3,3 C 76 % 1009,9 hPa 0,0 l/m 0 min 2 min 0 W/m 25,7 km/h (4 Bft) 100,00 %
11.02.2020 22:40 4,7 C 3,9 C 3,3 C 76 % 1009,9 hPa 0,0 l/m 0 min 0 min 0 W/m 19,3 km/h (3 Bft) 100,00 %
11.02.2020 22:42 4,7 C 3,9 C 3,3 C 77 % 1009,9 hPa 0,0 l/m 0 min 0 min 0 W/m 29,0 km/h (5 Bft) 97,87 %
11.02.2020 22:44 4,7 C 3,9 C 3,3 C 77 % 1009,9 hPa 0,0 l/m 0 min 0 min 0 W/m 12,9 km/h (3 Bft) 100,00 %
11.02.2020 22:46 4,7 C 3,9 C 3,3 C 77 % 1009,8 hPa 0,0 l/m 0 min 0 min 0 W/m 19,3 km/h (3 Bft) 100,00 %
11.02.2020 22:48 4,7 C 3,9 C 3,3 C 77 % 1009,8 hPa 0,0 l/m 0 min 0 min 0 W/m 22,5 km/h (4 Bft) 100,00 %
11.02.2020 22:50 4,7 C 3,9 C 3,3 C 77 % 1009,9 hPa 0,0 l/m 0 min 0 min 0 W/m 22,5 km/h (4 Bft) 100,00 %
11.02.2020 22:52 4,7 C 3,9 C 3,3 C 77 % 1009,9 hPa 0,0 l/m 0 min 0 min 0 W/m 22,5 km/h (4 Bft) 100,00 %
11.02.2020 22:54 4,7 C 3,9 C 3,3 C 77 % 1009,8 hPa 0,0 l/m 0 min 0 min 0 W/m 25,7 km/h (4 Bft) 100,00 %
11.02.2020 22:56 4,7 C 3,9 C 3,3 C 77 % 1009,9 hPa 0,0 l/m 0 min 0 min 0 W/m 22,5 km/h (4 Bft) 100,00 %
11.02.2020 22:58 4,6 C 3,9 C 3,3 C 77 % 1009,8 hPa 0,0 l/m 0 min 0 min 0 W/m 32,2 km/h (5 Bft) 97,87 %
11.02.2020 23:00 4,6 C 3,9 C 3,3 C 77 % 1009,9 hPa 0,0 l/m 0 min 0 min 0 W/m 19,3 km/h (3 Bft) 95,74 %
11.02.2020 23:02 4,6 C 3,9 C 3,3 C 77 % 1009,9 hPa 0,0 l/m 0 min 0 min 0 W/m 32,2 km/h (5 Bft) 97,87 %
11.02.2020 23:04 4,6 C 3,9 C 3,3 C 77 % 1010,0 hPa 0,0 l/m 0 min 0 min 0 W/m 29,0 km/h (5 Bft) 97,78 %
11.02.2020 23:06 4,6 C 3,9 C 3,3 C 77 % 1009,9 hPa 0,0 l/m 0 min 0 min 0 W/m 19,3 km/h (3 Bft) 97,92 %
11.02.2020 23:08 4,6 C 3,9 C 3,3 C 77 % 1010,1 hPa 0,0 l/m 0 min 0 min 0 W/m 19,3 km/h (3 Bft) 97,83 %
11.02.2020 23:10 4,7 C 3,9 C 3,3 C 77 % 1010,3 hPa 0,0 l/m 0 min 0 min 0 W/m 32,2 km/h (5 Bft) 95,74 %
11.02.2020 23:12 4,7 C 3,9 C 3,3 C 77 % 1010,0 hPa 0,0 l/m 0 min 0 min 0 W/m 22,5 km/h (4 Bft) 97,87 %
11.02.2020 23:14 4,7 C 3,9 C 3,3 C 77 % 1010,1 hPa 0,0 l/m 0 min 0 min 0 W/m 25,7 km/h (4 Bft) 95,74 %
11.02.2020 23:16 4,7 C 3,9 C 3,3 C 77 % 1010,1 hPa 0,0 l/m 0 min 0 min 0 W/m 25,7 km/h (4 Bft) 97,87 %
11.02.2020 23:18 4,6 C 3,9 C 3,3 C 77 % 1010,1 hPa 0,0 l/m 0 min 0 min 0 W/m 29,0 km/h (5 Bft) 97,83 %
11.02.2020 23:20 4,6 C 3,9 C 3,3 C 77 % 1010,1 hPa 0,0 l/m 0 min 0 min 0 W/m 29,0 km/h (5 Bft) 95,74 %
11.02.2020 23:22 4,6 C 3,9 C 3,3 C 77 % 1010,1 hPa 0,0 l/m 0 min 0 min 0 W/m 25,7 km/h (4 Bft) 97,87 %
11.02.2020 23:24 4,6 C 3,9 C 3,3 C 77 % 1010,2 hPa 0,0 l/m 0 min 0 min 0 W/m 25,7 km/h (4 Bft) 97,87 %
11.02.2020 23:26 4,6 C 3,9 C 3,3 C 77 % 1010,3 hPa 0,0 l/m 0 min 0 min 0 W/m 25,7 km/h (4 Bft) 97,87 %
11.02.2020 23:28 4,6 C 3,9 C 3,3 C 77 % 1010,3 hPa 0,0 l/m 0 min 0 min 0 W/m 29,0 km/h (5 Bft) 97,87 %
11.02.2020 23:30 4,6 C 3,9 C 3,3 C 77 % 1010,4 hPa 0,0 l/m 0 min 0 min 0 W/m 35,4 km/h (5 Bft) 97,83 %
11.02.2020 23:32 4,6 C 3,9 C 3,3 C 77 % 1010,4 hPa 0,0 l/m 0 min 0 min 0 W/m 22,5 km/h (4 Bft) 97,83 %
11.02.2020 23:34 4,6 C 3,9 C 3,3 C 77 % 1010,4 hPa 0,0 l/m 0 min 0 min 0 W/m 25,7 km/h (4 Bft) 97,87 %
11.02.2020 23:36 4,6 C 3,9 C 3,3 C 77 % 1010,3 hPa 0,0 l/m 0 min 0 min 0 W/m 25,7 km/h (4 Bft) 97,87 %
11.02.2020 23:38 4,6 C 3,9 C 3,3 C 77 % 1010,3 hPa 0,0 l/m 0 min 0 min 0 W/m 16,1 km/h (3 Bft) 31,03 %
11.02.2020 23:40 4,6 C 3,9 C 3,3 C 77 % 1010,3 hPa 0,0 l/m 0 min 0 min 0 W/m 32,2 km/h (5 Bft) 95,74 %
11.02.2020 23:42 4,6 C 3,9 C 3,3 C 77 % 1010,3 hPa 0,0 l/m 0 min 0 min 0 W/m 25,7 km/h (4 Bft) 97,83 %
11.02.2020 23:44 4,6 C 3,9 C 3,3 C 77 % 1010,3 hPa 0,0 l/m 0 min 0 min 0 W/m 19,3 km/h (3 Bft) 95,74 %
11.02.2020 23:46 4,6 C 3,3 C 2,8 C 77 % 1010,3 hPa 0,0 l/m 0 min 0 min 0 W/m 19,3 km/h (3 Bft) 97,87 %
11.02.2020 23:48 4,5 C 3,3 C 2,8 C 78 % 1010,2 hPa 0,0 l/m 0 min 0 min 0 W/m 16,1 km/h (3 Bft) 95,74 %
11.02.2020 23:50 4,5 C 3,3 C 2,8 C 77 % 1010,3 hPa 0,0 l/m 0 min 0 min 0 W/m 29,0 km/h (5 Bft) 100,00 %
11.02.2020 23:52 4,4 C 3,3 C 2,8 C 77 % 1010,3 hPa 0,0 l/m 0 min 0 min 0 W/m 19,3 km/h (3 Bft) 100,00 %
11.02.2020 23:54 4,4 C 3,9 C 2,8 C 77 % 1010,3 hPa 0,0 l/m 0 min 0 min 0 W/m 19,3 km/h (3 Bft) 93,48 %
11.02.2020 23:56 4,4 C 3,9 C 3,3 C 77 % 1010,2 hPa 0,0 l/m 0 min 0 min 0 W/m 32,2 km/h (5 Bft) 97,87 %
11.02.2020 23:58 4,4 C 3,9 C 2,8 C 77 % 1010,2 hPa 0,0 l/m 0 min 0 min 0 W/m 19,3 km/h (3 Bft) 97,87 %
_ Min-Zeit 00:32 00:10 00:24 14:24 00:00 - - - - 00:00 00:02
Minimum _ 3,4 C 2,2 C 1,7 C 58 % 996,4 hPa - - - - 6,4 km/h (2 Bft) 6,67 %
_ Max-Zeit 14:22 14:00 12:36 00:38 23:30 21:08 09:20 22:25 12:36 12:02 00:50
Maximum _ 8,5 C 11,7 C 8,3 C 95 % 1010,4 hPa 0,2 l/m 2 min 5 min 577 W/m 64,4 km/h
NW (8 Bft)
100,00 %
Durchschnitt _ 5,2 C 4,9 C 4,0 C 76 % 1004,6 hPa #0,2 l/m #3:32 h #3:40 h 162 W/m 27,3 km/h (4 Bft) 96,84 %
© 2020 W. Hausmann